CPA104 EIDW-VHHH

Flight info

Callsign CPA104
Flight time N/A
Altitude 35000
Route ROTEV3J ROTEV DCT PIPAR DCT BUDON DCT KLONN P600 LAPOT/N0468F370 P600 GIMEX DCT DIKVI DCT ASVOB DCT OTVEG DCT ASTUX DCT KOKAT/K0889F370 M59 OKRAN/K0882F390 M59 NWK T631 RO R497 LONKA A822 GUDMI R478 AMUTA/K0870S1190 Y618 BURKU B339 UDA V674 NIXAL B208 CGO W129 KAMDA/K0882S1220 V109 LKO A461 LIG/K0880S1190 R473 BEMAG/K0878S1220 V5 CON W6 NLG W18 TAMOT
Aircraft A333/H-SDE3GHIJ2J3J5M1RVWXY/LB2D1

Departure

Time 2026-05-07 22:28
Airport Dublin Airport (EIDW)

Arrival

Time N/A
Airport Hong Kong International Airport (VHHH)
Time Latitude Longitude Altitude Speed Heading
2026-05-07 21:56 53.42761 -6.24740 220 ft 0 kts
2026-05-07 22:14 53.42746 -6.24741 220 ft 2 kts
2026-05-07 22:14 53.42730 -6.24742 215 ft 2 kts
2026-05-07 22:15 53.42714 -6.24744 215 ft 2 kts
2026-05-07 22:15 53.42710 -6.24746 216 ft 0 kts 334°
2026-05-07 22:15 53.42708 -6.24746 216 ft 0 kts 315°
2026-05-07 22:15 53.42705 -6.24745 217 ft 0 kts 295°
2026-05-07 22:16 53.42703 -6.24742 218 ft 0 kts 275°
2026-05-07 22:16 53.42701 -6.24738 219 ft 0 kts 256°
2026-05-07 22:17 53.42701 -6.24739 218 ft 0 kts 256°
2026-05-07 22:17 53.42700 -6.24745 217 ft 2 kts 256°
2026-05-07 22:17 53.42691 -6.24790 218 ft 6 kts 247°
2026-05-07 22:18 53.42668 -6.24861 223 ft 6 kts 247°
2026-05-07 22:18 53.42724 -6.24986 221 ft 5 kts 327°
2026-05-07 22:18 53.42752 -6.25016 222 ft 2 kts 327°
2026-05-07 22:19 53.42764 -6.25031 223 ft 2 kts 323°
2026-05-07 22:19 53.42773 -6.25044 223 ft 2 kts 317°
2026-05-07 22:19 53.42780 -6.25059 223 ft 1 kts 306°
2026-05-07 22:19 53.42784 -6.25073 222 ft 1 kts 298°
2026-05-07 22:20 53.42788 -6.25091 220 ft 2 kts 290°
2026-05-07 22:20 53.42792 -6.25113 219 ft 2 kts 282°
2026-05-07 22:20 53.42794 -6.25158 218 ft 7 kts 276°
2026-05-07 22:20 53.42819 -6.25255 223 ft 11 kts 316°
2026-05-07 22:21 53.42908 -6.25325 222 ft 17 kts 336°
2026-05-07 22:21 53.43027 -6.25413 225 ft 19 kts 336°
2026-05-07 22:21 53.43151 -6.25501 222 ft 19 kts 337°
2026-05-07 22:21 53.43271 -6.25588 219 ft 19 kts 336°
2026-05-07 22:22 53.43365 -6.25645 220 ft 11 kts 359°
2026-05-07 22:22 53.43405 -6.25574 221 ft 8 kts 82°
2026-05-07 22:22 53.43402 -6.25474 217 ft 9 kts 95°
2026-05-07 22:22 53.43395 -6.25339 216 ft 15 kts 95°
2026-05-07 22:23 53.43384 -6.25138 221 ft 20 kts 95°
2026-05-07 22:23 53.43372 -6.24924 218 ft 18 kts 95°
2026-05-07 22:23 53.43361 -6.24721 222 ft 17 kts 95°
2026-05-07 22:23 53.43350 -6.24520 215 ft 17 kts 95°
2026-05-07 22:24 53.43338 -6.24322 215 ft 16 kts 95°
2026-05-07 22:24 53.43329 -6.24147 222 ft 15 kts 95°
2026-05-07 22:24 53.43321 -6.23998 216 ft 11 kts 95°
2026-05-07 22:24 53.43335 -6.23881 224 ft 10 kts 46°
2026-05-07 22:25 53.43377 -6.23856 221 ft 3 kts
2026-05-07 22:25 53.43383 -6.23855 221 ft 0 kts
2026-05-07 22:26 53.43389 -6.23854 220 ft 2 kts
2026-05-07 22:26 53.43410 -6.23850 218 ft 6 kts
2026-05-07 22:26 53.43467 -6.23844 221 ft 8 kts 353°
2026-05-07 22:26 53.43487 -6.23898 221 ft 5 kts 281°
2026-05-07 22:27 53.43490 -6.23941 221 ft 0 kts 273°
2026-05-07 22:27 53.43491 -6.23963 219 ft 8 kts 273°
2026-05-07 22:28 53.43507 -6.24296 221 ft 55 kts 276°
2026-05-07 22:28 53.43562 -6.25250 221 ft 109 kts 275°
2026-05-07 22:28 53.43649 -6.26807 223 ft 157 kts 276°
2026-05-07 22:28 53.43782 -6.28674 844 ft 153 kts 275°
2026-05-07 22:29 53.44162 -6.30481 1115 ft 186 kts 305°
2026-05-07 22:29 53.44989 -6.32156 1825 ft 188 kts 306°
2026-05-07 22:29 53.45850 -6.33871 2271 ft 195 kts 310°
2026-05-07 22:29 53.46996 -6.35106 2761 ft 204 kts 343°
2026-05-07 22:30 53.48426 -6.35293 3285 ft 208 kts 358°
2026-05-07 22:30 53.49875 -6.35184 3826 ft 209 kts
2026-05-07 22:30 53.51338 -6.35048 4334 ft 212 kts
2026-05-07 22:30 53.52802 -6.34864 4812 ft 217 kts
2026-05-07 22:31 53.54350 -6.34505 5039 ft 232 kts
2026-05-07 22:31 53.55996 -6.34075 5197 ft 247 kts
2026-05-07 22:31 53.57743 -6.33617 5412 ft 259 kts
2026-05-07 22:31 53.59543 -6.33147 5721 ft 264 kts
2026-05-07 22:32 53.61369 -6.32674 6106 ft 266 kts
2026-05-07 22:32 53.63206 -6.32201 6493 ft 268 kts
2026-05-07 22:32 53.65057 -6.31724 6880 ft 270 kts
2026-05-07 22:32 53.66912 -6.31146 7264 ft 273 kts 12°
2026-05-07 22:33 53.68785 -6.30354 7511 ft 283 kts 14°
2026-05-07 22:33 53.70714 -6.29483 7919 ft 289 kts 14°
2026-05-07 22:33 53.72661 -6.28596 8458 ft 290 kts 14°
2026-05-07 22:33 53.74621 -6.27699 9013 ft 292 kts 15°
2026-05-07 22:34 53.76546 -6.26538 9513 ft 295 kts 21°
2026-05-07 22:34 53.78443 -6.25151 10023 ft 299 kts 23°
2026-05-07 22:34 53.80354 -6.23709 10224 ft 311 kts 23°
2026-05-07 22:34 53.82378 -6.22177 10413 ft 325 kts 23°
2026-05-07 22:35 53.84486 -6.20582 10577 ft 338 kts 24°
2026-05-07 22:35 53.86681 -6.18923 10746 ft 352 kts 23°
2026-05-07 22:35 53.88956 -6.17203 10899 ft 364 kts 23°
2026-05-07 22:35 53.91316 -6.15418 11050 ft 376 kts 23°
2026-05-07 22:36 53.93735 -6.13586 11265 ft 385 kts 23°
2026-05-07 22:36 53.96202 -6.11715 11634 ft 390 kts 23°
2026-05-07 22:36 53.98691 -6.09826 12027 ft 393 kts 23°
2026-05-07 22:36 54.01164 -6.07933 12445 ft 396 kts 24°
2026-05-07 22:37 54.03588 -6.05643 12858 ft 400 kts 32°
2026-05-07 22:37 54.05913 -6.02959 13263 ft 403 kts 35°
2026-05-07 22:37 54.08177 -6.00118 13672 ft 407 kts 36°
2026-05-07 22:37 54.10435 -5.97171 14034 ft 410 kts 37°
2026-05-07 22:38 54.12698 -5.94177 14357 ft 413 kts 37°
2026-05-07 22:38 54.14979 -5.91164 14719 ft 416 kts 37°
2026-05-07 22:38 54.17277 -5.88146 15087 ft 417 kts 37°
2026-05-07 22:38 54.19588 -5.85126 15421 ft 420 kts 36°
2026-05-07 22:39 54.21898 -5.82120 15761 ft 423 kts 36°
2026-05-07 22:39 54.24280 -5.79026 16091 ft 425 kts 36°
2026-05-07 22:39 54.26613 -5.75994 16436 ft 427 kts 36°
2026-05-07 22:39 54.28997 -5.72894 16769 ft 430 kts 36°
2026-05-07 22:40 54.31381 -5.69788 17081 ft 432 kts 36°
2026-05-07 22:40 54.33780 -5.66657 17421 ft 434 kts 36°
2026-05-07 22:40 54.36190 -5.63505 17738 ft 437 kts 36°
2026-05-07 22:40 54.38613 -5.60332 18050 ft 440 kts 36°
2026-05-07 22:41 54.41060 -5.57122 18339 ft 442 kts 36°
2026-05-07 22:41 54.43476 -5.53947 18605 ft 444 kts 36°
2026-05-07 22:41 54.45934 -5.50712 18882 ft 446 kts 36°
2026-05-07 22:41 54.48397 -5.47465 19151 ft 447 kts 37°
2026-05-07 22:42 54.50875 -5.44194 19414 ft 449 kts 37°
2026-05-07 22:42 54.53359 -5.40909 19682 ft 451 kts 37°
2026-05-07 22:42 54.55854 -5.37604 19924 ft 452 kts 37°
2026-05-07 22:42 54.58355 -5.34287 20206 ft 453 kts 37°
2026-05-07 22:43 54.60858 -5.30962 20455 ft 455 kts 37°
2026-05-07 22:43 54.63368 -5.27622 20698 ft 457 kts 37°
2026-05-07 22:43 54.65895 -5.24255 20930 ft 459 kts 37°
2026-05-07 22:43 54.68426 -5.20876 21174 ft 461 kts 37°
2026-05-07 22:44 54.70943 -5.17511 21424 ft 463 kts 37°
2026-05-07 22:44 54.73527 -5.14050 21672 ft 464 kts 37°
2026-05-07 22:44 54.76087 -5.10615 21933 ft 466 kts 37°
2026-05-07 22:44 54.78617 -5.07216 22181 ft 468 kts 37°
2026-05-07 22:45 54.81196 -5.03745 22433 ft 469 kts 37°
2026-05-07 22:45 54.83781 -5.00259 22687 ft 471 kts 37°
2026-05-07 22:45 54.86370 -4.96764 22935 ft 473 kts 37°
2026-05-07 22:45 54.88977 -4.93237 23188 ft 475 kts 37°
2026-05-07 22:46 54.90702 -4.90901 23358 ft 476 kts 37°
2026-05-07 22:46 54.93315 -4.87357 23607 ft 477 kts 38°
2026-05-07 22:46 54.95936 -4.83795 23824 ft 479 kts 38°
2026-05-07 22:46 54.98565 -4.80217 24048 ft 480 kts 38°
2026-05-07 22:47 55.01203 -4.76620 24257 ft 482 kts 38°
2026-05-07 22:47 55.03845 -4.73012 24491 ft 483 kts 38°
2026-05-07 22:47 55.06496 -4.69384 24707 ft 485 kts 38°
2026-05-07 22:47 55.09150 -4.65748 24916 ft 486 kts 38°
2026-05-07 22:48 55.11816 -4.62088 25153 ft 487 kts 38°
2026-05-07 22:48 55.14483 -4.58420 25371 ft 489 kts 38°
2026-05-07 22:48 55.17163 -4.54727 25591 ft 490 kts 38°
2026-05-07 22:48 55.19841 -4.51031 25802 ft 492 kts 38°
2026-05-07 22:49 55.22505 -4.47347 25965 ft 495 kts 38°
2026-05-07 22:49 55.25213 -4.43597 26187 ft 496 kts 38°
2026-05-07 22:49 55.27920 -4.39842 26395 ft 496 kts 38°
2026-05-07 22:49 55.30627 -4.36080 26682 ft 497 kts 38°
2026-05-07 22:50 55.33341 -4.32301 26884 ft 498 kts 38°
2026-05-07 22:50 55.36066 -4.28499 27088 ft 500 kts 38°
2026-05-07 22:50 55.38800 -4.24678 27291 ft 501 kts 39°
2026-05-07 22:50 55.41540 -4.20842 27489 ft 503 kts 39°
2026-05-07 22:51 55.44278 -4.17001 27702 ft 504 kts 39°
2026-05-07 22:51 55.47025 -4.13141 27900 ft 507 kts 39°
2026-05-07 22:51 55.49750 -4.09305 28027 ft 510 kts 39°
2026-05-07 22:51 55.52524 -4.05392 28232 ft 511 kts 39°
2026-05-07 22:52 55.55302 -4.01467 28446 ft 512 kts 39°
2026-05-07 22:52 55.58087 -3.97525 28647 ft 513 kts 39°
2026-05-07 22:52 55.60874 -3.93572 28896 ft 513 kts 39°
2026-05-07 22:52 55.63654 -3.89622 29227 ft 511 kts 39°
2026-05-07 22:53 55.66419 -3.85686 29707 ft 507 kts 39°
2026-05-07 22:53 55.69164 -3.81771 30024 ft 506 kts 39°
2026-05-07 22:53 55.71907 -3.77851 30247 ft 506 kts 39°
2026-05-07 22:53 55.74659 -3.73911 30457 ft 507 kts 39°
2026-05-07 22:54 55.77402 -3.69978 30651 ft 508 kts 39°
2026-05-07 22:54 55.80152 -3.66026 30903 ft 507 kts 39°
2026-05-07 22:54 55.82892 -3.62082 31143 ft 506 kts 39°
2026-05-07 22:54 55.85622 -3.58144 31386 ft 506 kts 39°
2026-05-07 22:55 55.88351 -3.54201 31630 ft 505 kts 39°
2026-05-07 22:55 55.91081 -3.50248 31892 ft 504 kts 40°
2026-05-07 22:55 55.93797 -3.46309 32135 ft 504 kts 40°
2026-05-07 22:55 55.96486 -3.42402 32378 ft 503 kts 40°
2026-05-07 22:56 55.99199 -3.38452 32624 ft 503 kts 40°
2026-05-07 22:56 56.01908 -3.34502 32933 ft 501 kts 40°
2026-05-07 22:56 56.04603 -3.30564 33189 ft 500 kts 40°
2026-05-07 22:56 56.07307 -3.26604 33453 ft 500 kts 40°
2026-05-07 22:57 56.09998 -3.22658 33709 ft 500 kts 40°
2026-05-07 22:57 56.12679 -3.18675 33961 ft 499 kts 41°
2026-05-07 22:57 56.15309 -3.14622 34169 ft 498 kts 42°
2026-05-07 22:57 56.17914 -3.10521 34386 ft 498 kts 43°
2026-05-07 22:58 56.20477 -3.06446 34558 ft 497 kts 43°
2026-05-07 22:58 56.23065 -3.02318 34759 ft 497 kts 43°
2026-05-07 22:58 56.25654 -2.98191 34943 ft 497 kts 42°
2026-05-07 22:58 56.28247 -2.94060 35135 ft 498 kts 42°
2026-05-07 22:59 56.30849 -2.89914 35245 ft 499 kts 42°
2026-05-07 22:59 56.33444 -2.85780 35410 ft 498 kts 42°
2026-05-07 22:59 56.36035 -2.81647 35643 ft 497 kts 42°
2026-05-07 22:59 56.38624 -2.77510 35830 ft 496 kts 42°
2026-05-07 23:00 56.41208 -2.73373 35976 ft 497 kts 42°
2026-05-07 23:00 56.43791 -2.69230 36113 ft 497 kts 42°
2026-05-07 23:00 56.46378 -2.65072 36262 ft 497 kts 42°
2026-05-07 23:00 56.48970 -2.60898 36433 ft 497 kts 42°
2026-05-07 23:01 56.51521 -2.56783 36560 ft 497 kts 42°
2026-05-07 23:01 56.54102 -2.52612 36727 ft 497 kts 42°
2026-05-07 23:01 56.56681 -2.48434 36847 ft 498 kts 43°
2026-05-07 23:02 56.61879 -2.39990 36922 ft 503 kts 43°
2026-05-07 23:02 56.67092 -2.31491 36932 ft 503 kts 43°
2026-05-07 23:03 56.72297 -2.22974 36951 ft 502 kts 43°
2026-05-07 23:03 56.77483 -2.14452 36951 ft 502 kts 43°
2026-05-07 23:04 56.82634 -2.05954 36975 ft 502 kts 43°
2026-05-07 23:04 56.87816 -1.97372 36956 ft 503 kts 43°
2026-05-07 23:05 56.93006 -1.88743 36953 ft 504 kts 43°
2026-05-07 23:05 56.98187 -1.80097 36956 ft 504 kts 44°
2026-05-07 23:06 57.03360 -1.71430 36966 ft 503 kts 44°
2026-05-07 23:06 57.08519 -1.62752 36952 ft 502 kts 44°
2026-05-07 23:07 57.13678 -1.54038 36962 ft 503 kts 44°
2026-05-07 23:07 57.18842 -1.45280 36957 ft 504 kts 44°
2026-05-07 23:08 57.23966 -1.36559 36963 ft 504 kts 44°
2026-05-07 23:08 57.29120 -1.27749 36961 ft 504 kts 44°
2026-05-07 23:09 57.34266 -1.18920 36945 ft 504 kts 44°
2026-05-07 23:09 57.39410 -1.10057 36966 ft 504 kts 44°
2026-05-07 23:10 57.44553 -1.01161 36962 ft 505 kts 44°
2026-05-07 23:10 57.49688 -0.92242 36968 ft 505 kts 44°
2026-05-07 23:11 57.54795 -0.83337 36972 ft 505 kts 45°
2026-05-07 23:11 57.59923 -0.74359 36963 ft 505 kts 45°
2026-05-07 23:12 57.65041 -0.65362 36978 ft 505 kts 45°
2026-05-07 23:12 57.69746 -0.55668 36981 ft 502 kts 59°
2026-05-07 23:13 57.72912 -0.44121 36981 ft 498 kts 69°
2026-05-07 23:13 57.75580 -0.32150 36980 ft 498 kts 71°
2026-05-07 23:14 57.78148 -0.20089 36987 ft 498 kts 71°
2026-05-07 23:14 57.80701 -0.08106 36985 ft 498 kts 71°
2026-05-07 23:15 57.83279 0.03941 36997 ft 497 kts 71°
2026-05-07 23:15 57.85856 0.16008 36997 ft 497 kts 71°
2026-05-07 23:16 57.88419 0.28077 36997 ft 497 kts 71°
2026-05-07 23:16 57.90969 0.40164 37009 ft 497 kts 71°
2026-05-07 23:17 57.93506 0.52262 37018 ft 497 kts 72°
2026-05-07 23:17 57.96026 0.64354 37014 ft 498 kts 71°
2026-05-07 23:18 57.98547 0.76517 37018 ft 498 kts 72°
2026-05-07 23:18 58.01053 0.88685 37023 ft 498 kts 72°
2026-05-07 23:19 58.03548 1.00870 37032 ft 498 kts 72°
2026-05-07 23:19 58.06030 1.13069 37029 ft 498 kts 72°
2026-05-07 23:20 58.08493 1.25247 37015 ft 497 kts 72°
2026-05-07 23:20 58.10951 1.37474 37034 ft 497 kts 72°
2026-05-07 23:21 58.13395 1.49706 37046 ft 496 kts 72°
2026-05-07 23:21 58.15824 1.61941 37040 ft 496 kts 72°
2026-05-07 23:22 58.18242 1.74195 37047 ft 496 kts 72°
2026-05-07 23:22 58.20650 1.86475 37030 ft 497 kts 72°
2026-05-07 23:23 58.23032 1.98703 37066 ft 497 kts 72°
2026-05-07 23:23 58.25422 2.11039 37059 ft 497 kts 72°
2026-05-07 23:24 58.27795 2.23369 37077 ft 497 kts 72°
2026-05-07 23:24 58.30158 2.35729 37077 ft 497 kts 72°
2026-05-07 23:25 58.32508 2.48099 37063 ft 497 kts 72°
2026-05-07 23:25 58.34829 2.60395 37086 ft 496 kts 72°
2026-05-07 23:26 58.37153 2.72781 37083 ft 495 kts 73°
2026-05-07 23:26 58.39430 2.85164 37091 ft 495 kts 74°
2026-05-07 23:27 58.42411 3.04005 37105 ft 494 kts 76°
2026-05-07 23:27 58.44323 3.16595 37105 ft 494 kts 76°
2026-05-07 23:28 58.46250 3.29208 37107 ft 495 kts 76°
2026-05-07 23:28 58.48171 3.41764 37110 ft 495 kts 76°
2026-05-07 23:29 58.50096 3.54415 37114 ft 495 kts 76°
2026-05-07 23:29 58.52006 3.67077 37123 ft 495 kts 76°
2026-05-07 23:30 58.53901 3.79736 37122 ft 495 kts 76°
2026-05-07 23:30 58.55786 3.92427 37127 ft 494 kts 76°
2026-05-07 23:31 58.57641 4.05015 37125 ft 494 kts 76°
2026-05-07 23:31 58.59496 4.17702 37121 ft 494 kts 76°
2026-05-07 23:32 58.61028 4.28254 37133 ft 494 kts 76°
2026-05-07 23:32 58.62866 4.40959 37126 ft 494 kts 75°
2026-05-07 23:33 58.65225 4.53354 37136 ft 494 kts 70°
2026-05-07 23:33 58.67738 4.65630 37134 ft 494 kts 70°
2026-05-07 23:34 58.70275 4.77907 37135 ft 494 kts 70°
2026-05-07 23:34 58.72784 4.90150 37137 ft 494 kts 70°
2026-05-07 23:35 58.75288 5.02485 37137 ft 494 kts 70°
2026-05-07 23:35 58.77775 5.14832 37140 ft 493 kts 70°
2026-05-07 23:36 58.80244 5.27165 37140 ft 493 kts 70°
2026-05-07 23:36 58.82689 5.39451 37146 ft 493 kts 70°
2026-05-07 23:37 58.85134 5.51816 37143 ft 493 kts 70°
2026-05-07 23:37 58.87860 5.63984 37157 ft 494 kts 60°
2026-05-07 23:38 58.91693 5.74914 37159 ft 495 kts 54°
2026-05-07 23:38 58.95805 5.85661 37155 ft 497 kts 53°
2026-05-07 23:39 58.99961 5.96391 37156 ft 498 kts 53°
2026-05-07 23:39 59.04097 6.07171 37155 ft 498 kts 53°
2026-05-07 23:40 59.08206 6.17986 37153 ft 497 kts 54°
2026-05-07 23:40 59.12315 6.28870 37154 ft 498 kts 54°
2026-05-07 23:41 59.16401 6.39745 37171 ft 498 kts 53°
2026-05-07 23:41 59.20487 6.50666 37159 ft 498 kts 54°
2026-05-07 23:42 59.24544 6.61557 37159 ft 499 kts 54°
2026-05-07 23:42 59.28619 6.72550 37170 ft 499 kts 54°
2026-05-07 23:43 59.32648 6.83648 37168 ft 499 kts 59°
2026-05-07 23:43 59.36185 6.95338 37170 ft 498 kts 60°
2026-05-07 23:44 59.39595 7.07087 37184 ft 499 kts 61°
2026-05-07 23:44 59.42995 7.18966 37190 ft 499 kts 60°
2026-05-07 23:45 59.46398 7.30895 37195 ft 500 kts 60°
2026-05-07 23:45 59.49793 7.42831 37197 ft 500 kts 60°
2026-05-07 23:46 59.53179 7.54790 37190 ft 500 kts 60°
2026-05-07 23:46 59.56558 7.66783 37188 ft 500 kts 61°
2026-05-07 23:47 59.59928 7.78810 37180 ft 500 kts 61°
2026-05-07 23:47 59.63284 7.90852 37183 ft 500 kts 61°
2026-05-07 23:48 59.66623 8.02894 37191 ft 500 kts 60°
2026-05-07 23:48 59.69938 8.14917 37189 ft 501 kts 61°
2026-05-07 23:49 59.73270 8.27062 37191 ft 501 kts 61°
2026-05-07 23:49 59.76621 8.39198 37187 ft 501 kts 60°
2026-05-07 23:50 59.79996 8.51338 37186 ft 501 kts 60°
2026-05-07 23:50 59.83359 8.63491 37186 ft 501 kts 60°
2026-05-07 23:51 59.86688 8.75602 37183 ft 501 kts 60°
2026-05-07 23:51 59.90024 8.87820 37199 ft 502 kts 60°
2026-05-07 23:52 59.93359 9.00102 37179 ft 503 kts 60°
2026-05-07 23:52 59.96683 9.12406 37181 ft 503 kts 60°
2026-05-07 23:53 59.99976 9.24663 37183 ft 503 kts 61°
2026-05-07 23:53 60.03274 9.37005 37191 ft 503 kts 60°
2026-05-07 23:54 60.06560 9.49374 37189 ft 502 kts 61°
2026-05-07 23:54 60.09828 9.61740 37182 ft 502 kts 61°
2026-05-07 23:55 60.13085 9.74137 37181 ft 503 kts 61°
2026-05-07 23:55 60.16673 9.86088 37181 ft 502 kts 55°
2026-05-07 23:56 60.20530 9.97814 37190 ft 502 kts 54°
2026-05-07 23:56 60.24420 10.09498 37181 ft 502 kts 54°
2026-05-07 23:57 60.28295 10.21207 37185 ft 502 kts 56°
2026-05-07 23:57 60.31745 10.33484 37185 ft 503 kts 59°
2026-05-07 23:58 60.35045 10.45852 37211 ft 503 kts 60°
2026-05-07 23:58 60.38337 10.58398 37184 ft 506 kts 60°
2026-05-07 23:59 60.41619 10.70957 37183 ft 507 kts 60°
2026-05-07 23:59 60.44905 10.83576 37178 ft 507 kts 60°
2026-05-08 00:00 60.48185 10.96239 37188 ft 507 kts 60°
2026-05-08 00:00 60.51459 11.08944 37191 ft 507 kts 60°
2026-05-08 00:01 60.54717 11.21655 37198 ft 507 kts 60°
2026-05-08 00:01 60.57945 11.34329 37205 ft 508 kts 60°
2026-05-08 00:02 60.61192 11.47145 37194 ft 511 kts 60°
2026-05-08 00:02 60.64435 11.60022 37195 ft 511 kts 60°
2026-05-08 00:03 60.67668 11.72936 37193 ft 510 kts 60°
2026-05-08 00:03 60.70865 11.85783 37200 ft 510 kts 60°
2026-05-08 00:04 60.74063 11.98709 37193 ft 510 kts 60°
2026-05-08 00:04 60.77255 12.11684 37204 ft 510 kts 60°
2026-05-08 00:05 60.80432 12.24680 37210 ft 512 kts 60°
2026-05-08 00:05 60.83619 12.37786 37199 ft 514 kts 60°
2026-05-08 00:06 60.86798 12.50939 37205 ft 514 kts 60°
2026-05-08 00:06 60.89964 12.64125 37197 ft 515 kts 60°
2026-05-08 00:07 60.93115 12.77328 37188 ft 514 kts 60°
2026-05-08 00:07 60.96255 12.90562 37180 ft 515 kts 60°
2026-05-08 00:08 60.99361 13.03733 37183 ft 515 kts 61°
2026-05-08 00:08 61.02477 13.17030 37224 ft 515 kts 61°
2026-05-08 00:09 61.05583 13.30363 37224 ft 515 kts 61°
2026-05-08 00:09 61.08674 13.43714 37222 ft 515 kts 61°
2026-05-08 00:10 61.11736 13.57026 37222 ft 515 kts 61°
2026-05-08 00:10 61.14803 13.70443 37223 ft 515 kts 62°
2026-05-08 00:11 61.17857 13.83881 37220 ft 515 kts 62°
2026-05-08 00:11 61.20876 13.97254 37236 ft 515 kts 62°
2026-05-08 00:12 61.23902 14.10743 37225 ft 516 kts 62°
2026-05-08 00:12 61.26920 14.24282 37226 ft 516 kts 62°
2026-05-08 00:13 61.29896 14.37879 37234 ft 517 kts 64°
2026-05-08 00:13 61.32436 14.51807 37238 ft 518 kts 68°
2026-05-08 00:14 61.34802 14.66013 37240 ft 518 kts 68°
2026-05-08 00:14 61.37171 14.80206 37244 ft 518 kts 68°
2026-05-08 00:15 61.39563 14.94383 37243 ft 518 kts 67°
2026-05-08 00:15 61.41962 15.08602 37251 ft 518 kts 67°
2026-05-08 00:16 61.44339 15.22789 37255 ft 517 kts 67°
2026-05-08 00:16 61.46704 15.37025 37258 ft 517 kts 68°
2026-05-08 00:17 61.49052 15.51277 37255 ft 518 kts 68°
2026-05-08 00:17 61.51369 15.65449 37257 ft 518 kts 68°
2026-05-08 00:18 61.53685 15.79731 37259 ft 517 kts 68°
2026-05-08 00:18 61.55980 15.94000 37260 ft 517 kts 68°
2026-05-08 00:19 61.58265 16.08316 37294 ft 517 kts 68°
2026-05-08 00:19 61.60535 16.22649 37263 ft 517 kts 69°
2026-05-08 00:20 61.62789 16.37008 37264 ft 517 kts 69°
2026-05-08 00:20 61.65032 16.51405 37264 ft 517 kts 69°
2026-05-08 00:21 61.66882 16.63369 37263 ft 518 kts 69°
2026-05-08 00:21 61.69101 16.77831 37262 ft 518 kts 69°
2026-05-08 00:22 61.71303 16.92303 37262 ft 518 kts 69°
2026-05-08 00:22 61.73477 17.06709 37258 ft 518 kts 69°
2026-05-08 00:23 61.75651 17.21243 37280 ft 519 kts 70°
2026-05-08 00:23 61.77812 17.35805 37261 ft 520 kts 70°
2026-05-08 00:24 61.79961 17.50413 37260 ft 520 kts 70°
2026-05-08 00:24 61.82096 17.65053 37258 ft 521 kts 70°
2026-05-08 00:25 61.84217 17.79729 37263 ft 521 kts 70°
2026-05-08 00:25 61.86308 17.94316 37253 ft 521 kts 70°
2026-05-08 00:26 61.88158 18.09184 37260 ft 522 kts 75°
2026-05-08 00:26 61.89719 18.24250 37255 ft 522 kts 76°
2026-05-08 00:27 61.91243 18.39310 37283 ft 521 kts 75°
2026-05-08 00:27 61.92783 18.54319 37260 ft 519 kts 75°
2026-05-08 00:28 61.94323 18.69281 37258 ft 518 kts 75°
2026-05-08 00:28 61.95840 18.84145 37258 ft 519 kts 75°
2026-05-08 00:29 61.97351 18.99142 37273 ft 519 kts 76°
2026-05-08 00:29 61.98845 19.14154 37265 ft 519 kts 76°
2026-05-08 00:30 62.00328 19.29245 37271 ft 519 kts 76°
2026-05-08 00:30 62.01783 19.44226 37262 ft 519 kts 76°
2026-05-08 00:31 62.03230 19.59313 37259 ft 519 kts 76°
2026-05-08 00:31 62.04659 19.74400 37259 ft 518 kts 77°
2026-05-08 00:32 62.06057 19.89343 37258 ft 516 kts 77°
2026-05-08 00:32 62.07447 20.04384 37257 ft 517 kts 77°
2026-05-08 00:33 62.08823 20.19463 37257 ft 517 kts 77°
2026-05-08 00:33 62.10181 20.34539 37257 ft 517 kts 77°
2026-05-08 00:34 62.11522 20.49623 37254 ft 517 kts 77°
2026-05-08 00:34 62.12848 20.64738 37254 ft 517 kts 77°
2026-05-08 00:35 62.14149 20.79771 37257 ft 518 kts 78°
2026-05-08 00:35 62.15447 20.94961 37274 ft 519 kts 78°
2026-05-08 00:36 62.16728 21.10167 37260 ft 519 kts 78°
2026-05-08 00:36 62.17991 21.25375 37260 ft 519 kts 78°
2026-05-08 00:37 62.19239 21.40616 37260 ft 519 kts 78°
2026-05-08 00:38 62.21070 21.63372 37259 ft 519 kts 78°
2026-05-08 00:38 62.22278 21.78668 37262 ft 519 kts 79°
2026-05-08 00:39 62.23467 21.93936 37261 ft 519 kts 79°
2026-05-08 00:39 62.24639 22.09227 37260 ft 519 kts 79°
2026-05-08 00:40 62.25795 22.24532 37258 ft 519 kts 79°
2026-05-08 00:40 62.26929 22.39780 37258 ft 521 kts 79°
2026-05-08 00:41 62.28058 22.55200 37255 ft 523 kts 79°
2026-05-08 00:41 62.29179 22.70665 37258 ft 523 kts 79°
2026-05-08 00:42 62.30297 22.86012 37257 ft 523 kts 79°
2026-05-08 00:42 62.31410 23.01472 37258 ft 523 kts 80°
2026-05-08 00:43 62.32506 23.16958 37252 ft 523 kts 80°
2026-05-08 00:43 62.33582 23.32428 37250 ft 523 kts 80°
2026-05-08 00:44 62.34641 23.47936 37257 ft 523 kts 80°
2026-05-08 00:44 62.35675 23.63348 37260 ft 523 kts 81°
2026-05-08 00:45 62.36700 23.78882 37253 ft 523 kts 81°
2026-05-08 00:45 62.37706 23.94408 37249 ft 523 kts 81°
2026-05-08 00:46 62.38694 24.09925 37234 ft 523 kts 81°
2026-05-08 00:46 62.39662 24.25404 37232 ft 524 kts 81°
2026-05-08 00:47 62.40619 24.40998 37242 ft 524 kts 81°
2026-05-08 00:47 62.41558 24.56592 37234 ft 524 kts 82°
2026-05-08 00:48 62.42479 24.72191 37243 ft 524 kts 82°
2026-05-08 00:48 62.43378 24.87710 37231 ft 524 kts 82°
2026-05-08 00:49 62.44266 25.03350 37231 ft 524 kts 82°
2026-05-08 00:49 62.45135 25.18989 37223 ft 525 kts 82°
2026-05-08 00:50 62.45989 25.34669 37197 ft 525 kts 82°
2026-05-08 00:50 62.46821 25.50279 37184 ft 525 kts 82°
2026-05-08 00:51 62.47640 25.65978 37182 ft 525 kts 83°
2026-05-08 00:51 62.48439 25.81660 37168 ft 525 kts 83°
2026-05-08 00:52 62.49220 25.97305 37194 ft 525 kts 83°
2026-05-08 00:52 62.49985 26.13030 37200 ft 525 kts 83°
2026-05-08 00:53 62.50734 26.28761 37227 ft 525 kts 83°
2026-05-08 00:53 62.51463 26.44485 37214 ft 524 kts 83°
2026-05-08 00:54 62.52175 26.60215 37214 ft 524 kts 84°
2026-05-08 00:54 62.52869 26.75937 37204 ft 525 kts 84°
2026-05-08 00:55 62.53542 26.91586 37192 ft 525 kts 84°
2026-05-08 00:55 62.54201 27.07348 37193 ft 525 kts 84°
2026-05-08 00:56 62.54843 27.23122 37185 ft 525 kts 84°
2026-05-08 00:56 62.55467 27.38888 37182 ft 525 kts 85°
2026-05-08 00:57 62.56092 27.54645 37153 ft 525 kts 85°
2026-05-08 00:57 62.56739 27.70416 37172 ft 525 kts 85°
2026-05-08 00:58 62.57374 27.86214 37171 ft 525 kts 85°
2026-05-08 00:58 62.57986 28.01995 37162 ft 525 kts 85°
2026-05-08 00:59 62.58577 28.17782 37161 ft 525 kts 85°
2026-05-08 00:59 62.59147 28.33481 37158 ft 525 kts 85°
2026-05-08 01:00 62.59703 28.49295 37157 ft 526 kts 86°
2026-05-08 01:00 62.60243 28.65161 37148 ft 527 kts 86°
2026-05-08 01:01 62.60765 28.81060 37147 ft 527 kts 86°
2026-05-08 01:01 62.61269 28.96939 37173 ft 527 kts 86°
2026-05-08 01:02 62.61752 29.12722 37123 ft 527 kts 86°
2026-05-08 01:02 62.62220 29.28622 37106 ft 526 kts 86°
2026-05-08 01:03 62.62671 29.44539 37106 ft 528 kts 86°
2026-05-08 01:03 62.63102 29.60408 37108 ft 529 kts 87°
2026-05-08 01:04 62.63518 29.76380 37103 ft 529 kts 87°
2026-05-08 01:04 62.63916 29.92374 37110 ft 529 kts 87°
2026-05-08 01:05 62.64295 30.08360 37125 ft 529 kts 87°
2026-05-08 01:05 62.64657 30.24346 37124 ft 529 kts 87°
2026-05-08 01:06 62.64998 30.40244 37121 ft 528 kts 88°
2026-05-08 01:06 62.65322 30.56206 37117 ft 527 kts 88°
2026-05-08 01:07 62.65628 30.72163 37116 ft 527 kts 88°
2026-05-08 01:07 62.65913 30.88006 37118 ft 527 kts 88°
2026-05-08 01:08 62.66183 31.03939 37100 ft 527 kts 88°
2026-05-08 01:08 62.66434 31.19895 37115 ft 527 kts 88°
2026-05-08 01:09 62.66806 31.35821 37118 ft 527 kts 81°
2026-05-08 01:09 62.68363 31.51412 37102 ft 527 kts 75°
2026-05-08 01:10 62.70203 31.66770 37110 ft 526 kts 74°
2026-05-08 01:10 62.72092 31.82164 37107 ft 526 kts 74°
2026-05-08 01:11 62.73952 31.97606 37100 ft 526 kts 75°
2026-05-08 01:11 62.75759 32.13079 37090 ft 526 kts 75°
2026-05-08 01:12 62.77234 32.25991 37106 ft 527 kts 75°
2026-05-08 01:12 62.78994 32.41544 37092 ft 527 kts 76°
2026-05-08 01:13 62.81021 32.59638 37099 ft 527 kts 76°
2026-05-08 01:13 62.82469 32.72688 37093 ft 526 kts 76°
2026-05-08 01:14 62.84208 32.88180 37090 ft 526 kts 76°
2026-05-08 01:14 62.85958 33.03763 37088 ft 526 kts 76°
2026-05-08 01:15 62.87685 33.19328 37081 ft 527 kts 76°
2026-05-08 01:15 62.89389 33.34888 37081 ft 527 kts 76°
2026-05-08 01:16 62.91084 33.50557 37107 ft 528 kts 76°
2026-05-08 01:16 62.92755 33.66181 37082 ft 527 kts 77°
2026-05-08 01:17 62.94414 33.81881 37077 ft 528 kts 77°
2026-05-08 01:17 62.96058 33.97611 37083 ft 528 kts 77°
2026-05-08 01:18 62.97684 34.13354 37080 ft 528 kts 77°
2026-05-08 01:18 62.99283 34.29026 37076 ft 528 kts 77°
2026-05-08 01:19 63.00877 34.44833 37084 ft 528 kts 77°
2026-05-08 01:19 63.02450 34.60634 37085 ft 527 kts 78°
2026-05-08 01:20 63.03996 34.76353 37085 ft 527 kts 78°
2026-05-08 01:20 63.05531 34.92146 37087 ft 527 kts 78°
2026-05-08 01:21 63.07048 35.07962 37094 ft 527 kts 78°
2026-05-08 01:21 63.08549 35.23801 37094 ft 527 kts 78°
2026-05-08 01:22 63.10031 35.39658 37094 ft 527 kts 78°
2026-05-08 01:22 63.11499 35.55555 37103 ft 528 kts 78°
2026-05-08 01:23 63.12941 35.71383 37095 ft 527 kts 79°
2026-05-08 01:23 63.14372 35.87329 37097 ft 527 kts 79°
2026-05-08 01:24 63.15755 36.03148 37098 ft 527 kts 79°
2026-05-08 01:24 63.17125 36.19094 37099 ft 527 kts 79°
2026-05-08 01:25 63.18480 36.35065 37100 ft 527 kts 79°
2026-05-08 01:25 63.19812 36.50974 37098 ft 528 kts 80°
2026-05-08 01:26 63.21136 36.67011 37098 ft 529 kts 80°
2026-05-08 01:26 63.22438 36.83075 37094 ft 529 kts 80°
2026-05-08 01:27 63.23720 36.99173 37097 ft 529 kts 80°
2026-05-08 01:27 63.24984 37.15290 37092 ft 529 kts 81°
2026-05-08 01:28 63.26221 37.31293 37095 ft 529 kts 81°
2026-05-08 01:28 63.27452 37.47438 37096 ft 529 kts 81°
2026-05-08 01:29 63.28662 37.63566 37090 ft 530 kts 81°
2026-05-08 01:29 63.29858 37.79754 37090 ft 530 kts 81°
2026-05-08 01:30 63.31034 37.95940 37095 ft 530 kts 81°
2026-05-08 01:30 63.32193 38.12147 37090 ft 530 kts 82°
2026-05-08 01:31 63.33325 38.28264 37093 ft 530 kts 82°
2026-05-08 01:31 63.34447 38.44498 37105 ft 530 kts 82°
2026-05-08 01:32 63.35550 38.60732 37081 ft 530 kts 82°
2026-05-08 01:32 63.36637 38.77020 37086 ft 531 kts 82°
2026-05-08 01:33 63.37777 38.93320 37084 ft 532 kts 81°
2026-05-08 01:33 63.38947 39.09607 37083 ft 532 kts 82°
2026-05-08 01:34 63.40098 39.25912 37085 ft 532 kts 82°
2026-05-08 01:34 63.41215 39.42131 37099 ft 532 kts 82°
2026-05-08 01:35 63.42319 39.58491 37070 ft 532 kts 82°
2026-05-08 01:35 63.43402 39.74838 37073 ft 532 kts 82°
2026-05-08 01:36 63.44467 39.91215 37074 ft 533 kts 82°
2026-05-08 01:36 63.45524 40.07632 37075 ft 534 kts 82°
2026-05-08 01:37 63.46574 40.24084 37077 ft 534 kts 83°
2026-05-08 01:37 63.47600 40.40442 37075 ft 534 kts 83°
2026-05-08 01:38 63.48612 40.56916 37077 ft 534 kts 83°
2026-05-08 01:38 63.49604 40.73382 37077 ft 533 kts 83°
2026-05-08 01:39 63.50577 40.89867 37077 ft 533 kts 83°
2026-05-08 01:39 63.51531 41.06367 37081 ft 533 kts 83°
2026-05-08 01:40 63.52466 41.22863 37077 ft 533 kts 83°
2026-05-08 01:40 63.53376 41.39271 37078 ft 533 kts 84°
2026-05-08 01:41 63.54272 41.55786 37078 ft 533 kts 84°
2026-05-08 01:41 63.55149 41.72306 37082 ft 533 kts 84°
2026-05-08 01:42 63.56008 41.88838 37082 ft 533 kts 84°
2026-05-08 01:42 63.56847 42.05374 37088 ft 533 kts 84°
2026-05-08 01:43 63.57662 42.21822 37086 ft 533 kts 84°
2026-05-08 01:43 63.58470 42.38420 37093 ft 534 kts 84°
2026-05-08 01:44 63.59272 42.54921 37090 ft 534 kts 84°
2026-05-08 01:44 63.60064 42.71536 37096 ft 534 kts 84°
2026-05-08 01:45 63.60834 42.88143 37096 ft 534 kts 84°
2026-05-08 01:45 63.61584 43.04765 37106 ft 534 kts 85°
2026-05-08 01:46 63.62314 43.21402 37105 ft 534 kts 85°
2026-05-08 01:46 63.63020 43.37929 37099 ft 534 kts 85°
2026-05-08 01:47 63.63713 43.54607 37108 ft 535 kts 85°
2026-05-08 01:47 63.64387 43.71290 37109 ft 535 kts 85°
2026-05-08 01:48 63.65361 43.96292 37111 ft 534 kts 85°
2026-05-08 01:48 63.65982 44.12868 37120 ft 534 kts 85°
2026-05-08 01:49 63.66591 44.29570 37125 ft 534 kts 86°
2026-05-08 01:49 63.67194 44.46258 37132 ft 534 kts 86°
2026-05-08 01:50 63.67782 44.62968 37120 ft 535 kts 86°
2026-05-08 01:50 63.68352 44.79714 37122 ft 536 kts 86°
2026-05-08 01:51 63.68897 44.96377 37124 ft 536 kts 86°
2026-05-08 01:51 63.69426 45.13141 37130 ft 536 kts 86°
2026-05-08 01:52 63.69935 45.29899 37127 ft 536 kts 86°
2026-05-08 01:52 63.70267 45.46671 37156 ft 535 kts 89°
2026-05-08 01:53 63.70394 45.63368 37127 ft 535 kts 90°
2026-05-08 01:53 63.70491 45.80179 37132 ft 536 kts 90°
2026-05-08 01:54 63.70594 45.97038 37137 ft 537 kts 90°
2026-05-08 01:54 63.70691 46.13869 37138 ft 536 kts 90°
2026-05-08 01:55 63.70771 46.30711 37137 ft 536 kts 90°
2026-05-08 01:55 63.70831 46.47540 37137 ft 537 kts 90°
2026-05-08 01:56 63.70870 46.64386 37140 ft 536 kts 90°
2026-05-08 01:56 63.70890 46.81091 37118 ft 536 kts 90°
2026-05-08 01:57 63.70890 46.97956 37143 ft 538 kts 91°
2026-05-08 01:57 63.70869 47.14840 37142 ft 538 kts 91°
2026-05-08 01:58 63.70830 47.31734 37143 ft 538 kts 91°
2026-05-08 01:58 63.70771 47.48618 37142 ft 538 kts 91°
2026-05-08 01:59 63.70692 47.65406 37150 ft 538 kts 91°
2026-05-08 01:59 63.70600 47.82260 37152 ft 538 kts 91°
2026-05-08 02:00 63.70514 47.96270 37140 ft 538 kts 91°
2026-05-08 02:00 63.70375 48.15932 37158 ft 539 kts 91°
2026-05-08 02:01 63.70279 48.30077 37154 ft 539 kts 91°
2026-05-08 02:01 63.70161 48.46869 37156 ft 538 kts 91°
2026-05-08 02:02 63.70022 48.63775 37190 ft 538 kts 91°
2026-05-08 02:02 63.69859 48.80677 37157 ft 538 kts 92°
2026-05-08 02:03 63.69678 48.97463 37162 ft 538 kts 92°
2026-05-08 02:03 63.69476 49.14363 37159 ft 539 kts 92°
2026-05-08 02:04 63.69253 49.31262 37167 ft 539 kts 92°
2026-05-08 02:04 63.69011 49.48173 37168 ft 539 kts 92°
2026-05-08 02:05 63.68749 49.65061 37165 ft 539 kts 92°
2026-05-08 02:05 63.68466 49.81959 37167 ft 539 kts 92°
2026-05-08 02:06 63.68167 49.98757 37163 ft 539 kts 93°
2026-05-08 02:06 63.67847 50.15648 37168 ft 539 kts 93°
2026-05-08 02:07 63.67507 50.32540 37165 ft 540 kts 93°
2026-05-08 02:07 63.67146 50.49464 37165 ft 540 kts 93°
2026-05-08 02:08 63.66766 50.66357 37167 ft 540 kts 94°
2026-05-08 02:08 63.66368 50.83175 37168 ft 540 kts 94°
2026-05-08 02:09 63.65948 51.00061 37169 ft 540 kts 94°
2026-05-08 02:09 63.65507 51.17015 37170 ft 540 kts 94°
2026-05-08 02:10 63.65049 51.33882 37138 ft 540 kts 94°
2026-05-08 02:10 63.64570 51.50687 37172 ft 541 kts 94°
2026-05-08 02:11 63.64067 51.67591 37170 ft 541 kts 94°
2026-05-08 02:11 63.63542 51.84524 37185 ft 541 kts 94°
2026-05-08 02:12 63.62998 52.01428 37179 ft 541 kts 95°
2026-05-08 02:12 63.62440 52.18187 37178 ft 541 kts 95°
2026-05-08 02:13 63.61858 52.35051 37184 ft 541 kts 95°
2026-05-08 02:13 63.61256 52.51928 37183 ft 541 kts 95°
2026-05-08 02:14 63.60638 52.68680 37188 ft 541 kts 95°
2026-05-08 02:14 63.59996 52.85553 37204 ft 541 kts 95°
2026-05-08 02:15 63.59337 53.02358 37189 ft 540 kts 95°
2026-05-08 02:15 63.58657 53.19174 37192 ft 540 kts 96°
2026-05-08 02:16 63.57963 53.35847 37190 ft 540 kts 96°
2026-05-08 02:16 63.57244 53.52645 37192 ft 539 kts 96°
2026-05-08 02:17 63.56506 53.69433 37191 ft 540 kts 96°
2026-05-08 02:17 63.55754 53.86155 37219 ft 541 kts 96°
2026-05-08 02:18 63.54992 54.02929 37195 ft 540 kts 96°
2026-05-08 02:18 63.54214 54.19683 37195 ft 540 kts 96°
2026-05-08 02:19 63.53414 54.36447 37194 ft 540 kts 96°
2026-05-08 02:19 63.52593 54.53231 37197 ft 540 kts 97°
2026-05-08 02:20 63.51758 54.69871 37197 ft 540 kts 97°
2026-05-08 02:20 63.50900 54.86584 37198 ft 540 kts 97°
2026-05-08 02:21 63.50020 55.03329 37202 ft 540 kts 97°
2026-05-08 02:21 63.49122 55.20040 37197 ft 540 kts 97°
2026-05-08 02:22 63.48210 55.36646 37197 ft 540 kts 97°
2026-05-08 02:22 63.47261 55.53350 37200 ft 540 kts 98°
2026-05-08 02:23 63.46282 55.70024 37203 ft 540 kts 98°
2026-05-08 02:23 63.45285 55.86684 37180 ft 540 kts 98°
2026-05-08 02:24 63.44282 56.03331 37204 ft 540 kts 98°
2026-05-08 02:24 63.43268 56.19967 37203 ft 540 kts 98°
2026-05-08 02:25 63.42235 56.36593 37202 ft 540 kts 98°
2026-05-08 02:25 63.41187 56.53106 37202 ft 540 kts 98°
2026-05-08 02:26 63.40112 56.69721 37203 ft 540 kts 99°
2026-05-08 02:26 63.39018 56.86315 37202 ft 540 kts 99°
2026-05-08 02:27 63.37906 57.02886 37198 ft 540 kts 99°
2026-05-08 02:27 63.36771 57.19499 37217 ft 541 kts 99°
2026-05-08 02:28 63.35628 57.35946 37216 ft 541 kts 99°
2026-05-08 02:28 63.34457 57.52492 37200 ft 541 kts 99°
2026-05-08 02:29 63.33266 57.69042 37216 ft 541 kts 100°
2026-05-08 02:29 63.32056 57.85596 37199 ft 541 kts 100°
2026-05-08 02:30 63.30831 58.02103 37209 ft 541 kts 100°
2026-05-08 02:30 63.29586 58.18592 37209 ft 541 kts 100°
2026-05-08 02:31 63.28330 58.34974 37207 ft 541 kts 100°
2026-05-08 02:31 63.27048 58.51438 37201 ft 540 kts 101°
2026-05-08 02:32 63.25741 58.67933 37206 ft 540 kts 101°
2026-05-08 02:32 63.24419 58.84362 37199 ft 540 kts 101°
2026-05-08 02:33 63.23087 59.00672 37215 ft 541 kts 101°
2026-05-08 02:33 63.21723 59.17128 37159 ft 541 kts 101°
2026-05-08 02:34 63.20340 59.33568 37197 ft 543 kts 101°
2026-05-08 02:34 63.18935 59.50030 37194 ft 543 kts 101°
2026-05-08 02:35 63.17521 59.66369 37191 ft 543 kts 102°
2026-05-08 02:35 63.16082 59.82834 37191 ft 543 kts 102°
2026-05-08 02:36 63.14647 59.99143 37206 ft 543 kts 102°
2026-05-08 02:36 63.13181 60.15567 37180 ft 543 kts 102°
2026-05-08 02:37 63.11696 60.31983 37180 ft 543 kts 102°
2026-05-08 02:37 63.10204 60.48228 37180 ft 543 kts 102°
2026-05-08 02:38 63.08679 60.64581 37185 ft 543 kts 102°
2026-05-08 02:38 63.07141 60.80875 37180 ft 543 kts 103°
2026-05-08 02:39 63.05579 60.97197 37206 ft 543 kts 103°
2026-05-08 02:39 63.04008 61.13411 37172 ft 543 kts 103°
2026-05-08 02:40 63.02411 61.29682 37189 ft 543 kts 103°
2026-05-08 02:40 63.00796 61.45925 37180 ft 543 kts 103°
2026-05-08 02:41 62.99161 61.62166 37182 ft 543 kts 103°
2026-05-08 02:41 62.97508 61.78380 37182 ft 543 kts 104°
2026-05-08 02:42 62.95833 61.94616 37180 ft 543 kts 104°
2026-05-08 02:42 62.94152 62.10708 37179 ft 544 kts 104°
2026-05-08 02:43 62.92440 62.26899 37182 ft 544 kts 104°
2026-05-08 02:43 62.90706 62.43105 37136 ft 544 kts 104°
2026-05-08 02:44 62.88958 62.59253 37182 ft 544 kts 104°
2026-05-08 02:44 62.87191 62.75382 37176 ft 544 kts 104°
2026-05-08 02:45 62.85405 62.91497 37180 ft 544 kts 105°
2026-05-08 02:45 62.83601 63.07591 37180 ft 544 kts 105°
2026-05-08 02:46 62.81790 63.23563 37177 ft 544 kts 105°
2026-05-08 02:46 62.79949 63.39626 37174 ft 544 kts 105°
2026-05-08 02:47 62.78086 63.55698 37177 ft 544 kts 105°
2026-05-08 02:47 62.76209 63.71711 37177 ft 544 kts 105°
2026-05-08 02:48 62.74632 63.85027 37170 ft 544 kts 105°
2026-05-08 02:48 62.72722 64.01006 37165 ft 544 kts 105°
2026-05-08 02:49 62.70478 64.19550 37171 ft 544 kts 105°
2026-05-08 02:49 62.68529 64.35474 37166 ft 544 kts 106°
2026-05-08 02:50 62.66881 64.48818 37165 ft 544 kts 106°
2026-05-08 02:50 62.64911 64.64608 37165 ft 543 kts 106°
2026-05-08 02:51 62.62915 64.80443 37162 ft 543 kts 107°
2026-05-08 02:51 62.60900 64.96266 37166 ft 543 kts 107°
2026-05-08 02:52 62.58868 65.12062 37158 ft 543 kts 107°
2026-05-08 02:52 62.56817 65.27841 37160 ft 543 kts 107°
2026-05-08 02:53 62.54749 65.43602 37156 ft 543 kts 107°
2026-05-08 02:53 62.52678 65.59221 37118 ft 543 kts 107°
2026-05-08 02:54 62.50578 65.74909 37154 ft 543 kts 107°
2026-05-08 02:54 62.48457 65.90597 37157 ft 542 kts 107°
2026-05-08 02:55 62.45874 66.14347 37153 ft 543 kts 100°
2026-05-08 02:56 62.44591 66.30448 37151 ft 543 kts 99°
2026-05-08 02:56 62.43339 66.46552 37153 ft 543 kts 100°
2026-05-08 02:57 62.42062 66.62653 37152 ft 543 kts 100°
2026-05-08 02:57 62.40756 66.78715 37140 ft 543 kts 100°
2026-05-08 02:58 62.39437 66.94659 37151 ft 543 kts 101°
2026-05-08 02:58 62.38089 67.10701 37152 ft 543 kts 101°
2026-05-08 02:59 62.36723 67.26717 37151 ft 543 kts 101°
2026-05-08 02:59 62.35347 67.42645 37152 ft 543 kts 101°
2026-05-08 03:00 62.33948 67.58611 37161 ft 543 kts 101°
2026-05-08 03:00 62.32529 67.74580 37149 ft 543 kts 101°
2026-05-08 03:01 62.31090 67.90535 37148 ft 542 kts 101°
2026-05-08 03:01 62.29634 68.06455 37142 ft 542 kts 102°
2026-05-08 03:02 62.28162 68.22343 37141 ft 541 kts 102°
2026-05-08 03:02 62.26675 68.38182 37138 ft 541 kts 102°
2026-05-08 03:03 62.25170 68.54012 37136 ft 541 kts 102°
2026-05-08 03:03 62.23646 68.69833 37135 ft 541 kts 102°
2026-05-08 03:04 62.22112 68.85555 37134 ft 541 kts 102°
2026-05-08 03:04 62.20549 69.01368 37130 ft 541 kts 103°
2026-05-08 03:05 62.18971 69.17140 37130 ft 541 kts 103°
2026-05-08 03:05 62.17374 69.32916 37139 ft 541 kts 103°
2026-05-08 03:06 62.15759 69.48666 37132 ft 541 kts 103°
2026-05-08 03:06 62.14137 69.64291 37131 ft 541 kts 103°
2026-05-08 03:07 62.12488 69.79995 37130 ft 541 kts 103°
2026-05-08 03:07 62.10822 69.95674 37130 ft 541 kts 104°
2026-05-08 03:08 62.09138 70.11332 37131 ft 541 kts 104°
2026-05-08 03:08 62.07433 70.27013 37135 ft 541 kts 104°
2026-05-08 03:09 62.05710 70.42670 37138 ft 541 kts 104°
2026-05-08 03:09 62.03982 70.58205 37138 ft 542 kts 104°
2026-05-08 03:10 62.02223 70.73838 37144 ft 542 kts 104°
2026-05-08 03:10 62.00446 70.89458 37144 ft 542 kts 105°
2026-05-08 03:11 61.98556 71.04994 37147 ft 542 kts 107°
2026-05-08 03:11 61.96421 71.20236 37143 ft 542 kts 108°
2026-05-08 03:12 61.94214 71.35542 37141 ft 542 kts 108°
2026-05-08 03:12 61.92020 71.50873 37140 ft 541 kts 108°
2026-05-08 03:13 61.89839 71.66175 37109 ft 541 kts 108°
2026-05-08 03:13 61.87644 71.81476 37145 ft 542 kts 108°
2026-05-08 03:14 61.85432 71.96751 37136 ft 542 kts 108°
2026-05-08 03:14 61.83201 72.12001 37127 ft 542 kts 109°
2026-05-08 03:15 61.80962 72.27169 37130 ft 542 kts 109°
2026-05-08 03:15 61.78696 72.42387 37123 ft 542 kts 109°
2026-05-08 03:16 61.76432 72.57496 37119 ft 542 kts 109°
2026-05-08 03:16 61.74147 72.72660 37121 ft 542 kts 109°
2026-05-08 03:17 61.71847 72.87793 37118 ft 541 kts 109°
2026-05-08 03:17 61.69535 73.02873 37103 ft 540 kts 109°
2026-05-08 03:18 61.67203 73.17937 37097 ft 540 kts 110°
2026-05-08 03:18 61.64856 73.32977 37108 ft 540 kts 110°
2026-05-08 03:19 61.62506 73.47904 37106 ft 540 kts 110°
2026-05-08 03:19 61.60126 73.62897 37104 ft 540 kts 110°
2026-05-08 03:20 61.57735 73.77835 37106 ft 540 kts 110°
2026-05-08 03:20 61.55322 73.92784 37098 ft 540 kts 110°
2026-05-08 03:21 61.52901 74.07661 37104 ft 539 kts 111°
2026-05-08 03:21 61.50447 74.22421 37104 ft 538 kts 115°
2026-05-08 03:22 61.47322 74.36613 37123 ft 536 kts 118°
2026-05-08 03:22 61.44018 74.50587 37106 ft 536 kts 120°
2026-05-08 03:23 61.40665 74.64497 37100 ft 536 kts 120°
2026-05-08 03:23 61.37320 74.78331 37104 ft 536 kts 120°
2026-05-08 03:24 61.33957 74.92195 37100 ft 536 kts 120°
2026-05-08 03:24 61.30582 75.06038 37099 ft 536 kts 120°
2026-05-08 03:25 61.27179 75.19850 37102 ft 536 kts 120°
2026-05-08 03:25 61.23744 75.33501 37099 ft 535 kts 121°
2026-05-08 03:26 61.20269 75.47186 37099 ft 535 kts 121°
2026-05-08 03:26 61.16780 75.60864 37070 ft 535 kts 121°
2026-05-08 03:27 61.13286 75.74492 37099 ft 535 kts 121°
2026-05-08 03:27 61.09808 75.87973 37094 ft 534 kts 121°
2026-05-08 03:28 61.06295 76.01509 37101 ft 534 kts 121°
2026-05-08 03:28 61.02770 76.15010 37099 ft 534 kts 122°
2026-05-08 03:29 60.99227 76.28498 37101 ft 535 kts 122°
2026-05-08 03:29 60.95674 76.41945 37104 ft 535 kts 121°
2026-05-08 03:30 60.91220 76.63099 37091 ft 538 kts 114°
2026-05-08 03:31 60.85709 76.91619 37101 ft 538 kts 114°
2026-05-08 03:32 60.81528 77.13004 37095 ft 539 kts 114°
2026-05-08 03:33 60.76353 77.39370 37102 ft 539 kts 114°
2026-05-08 03:33 60.73539 77.53557 37101 ft 538 kts 114°
2026-05-08 03:34 60.70720 77.67738 37109 ft 538 kts 114°
2026-05-08 03:34 60.68053 77.82066 37100 ft 539 kts 112°
2026-05-08 03:35 60.65466 77.96306 37104 ft 539 kts 112°
2026-05-08 03:35 60.62832 78.10641 37102 ft 539 kts 113°
2026-05-08 03:36 60.60169 78.24923 37102 ft 539 kts 113°
2026-05-08 03:36 60.57485 78.39170 37105 ft 539 kts 113°
2026-05-08 03:37 60.54782 78.53412 37060 ft 539 kts 113°
2026-05-08 03:37 60.52091 78.67498 37104 ft 538 kts 113°
2026-05-08 03:38 60.49366 78.81658 37102 ft 538 kts 114°
2026-05-08 03:38 60.46629 78.95776 37107 ft 538 kts 114°
2026-05-08 03:39 60.43874 79.09894 37105 ft 538 kts 114°
2026-05-08 03:39 60.41104 79.23980 37103 ft 538 kts 114°
2026-05-08 03:40 60.38339 79.37944 37101 ft 538 kts 114°
2026-05-08 03:40 60.35545 79.51959 37100 ft 537 kts 114°
2026-05-08 03:41 60.32734 79.65961 37098 ft 537 kts 114°
2026-05-08 03:41 60.29917 79.79896 37097 ft 536 kts 114°
2026-05-08 03:42 60.27101 79.93732 37104 ft 536 kts 114°
2026-05-08 03:42 60.24261 80.07589 37094 ft 535 kts 115°
2026-05-08 03:43 60.21402 80.21445 37094 ft 535 kts 115°
2026-05-08 03:43 60.18533 80.35259 37094 ft 535 kts 115°
2026-05-08 03:44 60.15651 80.49058 37088 ft 535 kts 115°
2026-05-08 03:44 60.12765 80.62809 37035 ft 535 kts 115°
2026-05-08 03:45 60.09882 80.76455 37083 ft 534 kts 115°
2026-05-08 03:45 60.06969 80.90151 37082 ft 533 kts 115°
2026-05-08 03:46 60.04048 81.03794 37079 ft 533 kts 115°
2026-05-08 03:46 60.01110 81.17424 37084 ft 533 kts 115°
2026-05-08 03:47 59.98177 81.30939 37078 ft 533 kts 116°
2026-05-08 03:47 59.95212 81.44521 37072 ft 533 kts 116°
2026-05-08 03:48 59.92231 81.58081 37072 ft 533 kts 116°
2026-05-08 03:48 59.89242 81.71596 37081 ft 532 kts 116°
2026-05-08 03:49 59.86269 81.84949 37061 ft 530 kts 116°
2026-05-08 03:49 59.83271 81.98331 37075 ft 530 kts 116°
2026-05-08 03:50 59.80259 82.11689 37060 ft 530 kts 116°
2026-05-08 03:50 59.77228 82.25049 37062 ft 529 kts 116°
2026-05-08 03:51 59.74189 82.38359 37060 ft 529 kts 117°
2026-05-08 03:51 59.71157 82.51560 37056 ft 529 kts 117°
2026-05-08 03:52 59.68090 82.64827 37060 ft 529 kts 117°
2026-05-08 03:52 59.65015 82.78048 37052 ft 528 kts 117°
2026-05-08 03:53 59.61927 82.91242 37050 ft 528 kts 117°
2026-05-08 03:53 59.58832 83.04390 37044 ft 528 kts 117°
2026-05-08 03:54 59.55740 83.17441 37041 ft 528 kts 117°
2026-05-08 03:54 59.52612 83.30564 37044 ft 528 kts 117°
2026-05-08 03:55 59.49470 83.43667 37046 ft 528 kts 117°
2026-05-08 03:55 59.46342 83.56636 37042 ft 528 kts 118°
2026-05-08 03:56 59.43178 83.69678 37029 ft 527 kts 117°
2026-05-08 03:56 59.40005 83.82675 37038 ft 526 kts 117°
2026-05-08 03:57 59.36829 83.95609 37037 ft 526 kts 118°
2026-05-08 03:57 59.33662 84.08432 37032 ft 526 kts 118°
2026-05-08 03:58 59.30460 84.21319 37047 ft 526 kts 118°
2026-05-08 03:58 59.27243 84.34191 37031 ft 526 kts 118°
2026-05-08 03:59 59.24014 84.47038 37026 ft 526 kts 118°
2026-05-08 03:59 59.20775 84.59847 37024 ft 526 kts 118°
2026-05-08 04:00 59.17522 84.72638 37024 ft 526 kts 118°
2026-05-08 04:00 59.14254 84.85416 37022 ft 526 kts 118°
2026-05-08 04:01 59.10977 84.98156 37022 ft 526 kts 118°
2026-05-08 04:01 59.07712 85.10779 37022 ft 525 kts 119°
2026-05-08 04:02 59.04414 85.23454 37015 ft 525 kts 119°
2026-05-08 04:02 59.01104 85.36103 37016 ft 525 kts 119°
2026-05-08 04:03 58.97784 85.48722 37008 ft 525 kts 119°
2026-05-08 04:03 58.92811 85.67491 37005 ft 522 kts 119°
2026-05-08 04:04 58.89481 85.79974 36999 ft 521 kts 119°
2026-05-08 04:04 58.86141 85.92421 37001 ft 521 kts 120°
2026-05-08 04:05 58.82790 86.04843 36989 ft 521 kts 120°
2026-05-08 04:05 58.79421 86.17260 36994 ft 521 kts 120°
2026-05-08 04:06 58.76044 86.29644 36993 ft 521 kts 120°
2026-05-08 04:06 58.72654 86.42003 36985 ft 521 kts 120°
2026-05-08 04:07 58.69277 86.54251 36976 ft 521 kts 120°
2026-05-08 04:07 58.65877 86.66520 36976 ft 519 kts 120°
2026-05-08 04:08 58.62364 86.78615 36969 ft 518 kts 123°
2026-05-08 04:08 58.58532 86.90319 36971 ft 517 kts 125°
2026-05-08 04:09 58.54641 87.01909 36952 ft 517 kts 125°
2026-05-08 04:09 58.50769 87.13505 36950 ft 517 kts 125°
2026-05-08 04:10 58.46933 87.25034 36954 ft 517 kts 125°
2026-05-08 04:10 58.43066 87.36632 36933 ft 516 kts 125°
2026-05-08 04:11 58.39199 87.48171 36940 ft 515 kts 125°
2026-05-08 04:11 58.35328 87.59660 36935 ft 514 kts 125°
2026-05-08 04:12 58.31474 87.71042 36929 ft 514 kts 125°
2026-05-08 04:12 58.27583 87.82475 36926 ft 514 kts 125°
2026-05-08 04:13 58.23681 87.93889 36921 ft 514 kts 125°
2026-05-08 04:13 58.19780 88.05248 36914 ft 514 kts 126°
2026-05-08 04:14 58.15860 88.16616 36920 ft 513 kts 125°
2026-05-08 04:14 58.11953 88.27907 36911 ft 511 kts 125°
2026-05-08 04:15 58.08069 88.39075 36908 ft 511 kts 125°
2026-05-08 04:15 58.04149 88.50293 36908 ft 511 kts 125°
2026-05-08 04:16 58.00883 88.59599 36900 ft 511 kts 125°
2026-05-08 04:16 57.96302 88.72591 36900 ft 511 kts 126°
2026-05-08 04:17 57.92994 88.81926 36903 ft 511 kts 126°
2026-05-08 04:17 57.89045 88.93025 36899 ft 509 kts 125°
2026-05-08 04:18 57.85130 89.03979 36896 ft 508 kts 125°
2026-05-08 04:18 57.81173 89.14998 36894 ft 508 kts 125°
2026-05-08 04:19 57.77210 89.25982 36897 ft 508 kts 126°
2026-05-08 04:19 57.73259 89.36886 36893 ft 508 kts 126°
2026-05-08 04:20 57.69290 89.47854 36895 ft 508 kts 125°
2026-05-08 04:20 57.65342 89.58820 36889 ft 508 kts 125°
2026-05-08 04:21 57.61416 89.69682 36889 ft 507 kts 125°
2026-05-08 04:21 57.57462 89.80565 36892 ft 506 kts 126°
2026-05-08 04:22 57.53497 89.91418 36892 ft 506 kts 126°
2026-05-08 04:22 57.49522 90.02248 36864 ft 506 kts 126°
2026-05-08 04:23 57.45539 90.13051 36894 ft 505 kts 126°
2026-05-08 04:23 57.41560 90.23797 36892 ft 505 kts 126°
2026-05-08 04:24 57.37571 90.34520 36873 ft 505 kts 126°
2026-05-08 04:24 57.33592 90.45171 36896 ft 505 kts 126°
2026-05-08 04:25 57.29578 90.55865 36889 ft 505 kts 126°
2026-05-08 04:25 57.25562 90.66518 36897 ft 504 kts 126°
2026-05-08 04:26 57.21565 90.77075 36903 ft 504 kts 126°
2026-05-08 04:26 57.17536 90.87671 36902 ft 504 kts 126°
2026-05-08 04:27 57.13503 90.98230 36902 ft 504 kts 126°
2026-05-08 04:27 57.09460 91.08769 36890 ft 504 kts 126°
2026-05-08 04:28 57.05411 91.19280 36912 ft 504 kts 126°
2026-05-08 04:28 57.01358 91.29753 36914 ft 503 kts 126°
2026-05-08 04:29 56.97301 91.40191 36914 ft 502 kts 127°
2026-05-08 04:29 56.92949 91.50202 36920 ft 501 kts 131°
2026-05-08 04:30 56.88365 91.59831 36924 ft 501 kts 133°
2026-05-08 04:30 56.83796 91.69370 36919 ft 501 kts 132°
2026-05-08 04:31 56.79219 91.79014 36928 ft 501 kts 132°
2026-05-08 04:31 56.74664 91.88637 36924 ft 501 kts 132°
2026-05-08 04:32 56.70107 91.98237 36929 ft 501 kts 132°
2026-05-08 04:32 56.65542 92.07813 36922 ft 501 kts 132°
2026-05-08 04:33 56.60965 92.17369 36933 ft 501 kts 132°
2026-05-08 04:33 56.56408 92.26843 36931 ft 501 kts 132°
2026-05-08 04:34 56.51817 92.36353 36936 ft 501 kts 132°
2026-05-08 04:34 56.47223 92.45829 36935 ft 500 kts 132°
2026-05-08 04:35 56.42619 92.55289 36931 ft 500 kts 132°
2026-05-08 04:35 56.38041 92.64657 36934 ft 500 kts 132°
2026-05-08 04:36 56.33430 92.74056 36933 ft 500 kts 132°
2026-05-08 04:36 56.28795 92.83469 36938 ft 500 kts 133°
2026-05-08 04:37 56.24184 92.92877 36939 ft 501 kts 132°
2026-05-08 04:37 56.19643 93.02300 36944 ft 501 kts 131°
2026-05-08 04:38 56.15077 93.11771 36952 ft 502 kts 131°
2026-05-08 04:38 56.10495 93.21218 36958 ft 501 kts 132°
2026-05-08 04:39 56.05901 93.30638 36956 ft 501 kts 132°
2026-05-08 04:39 56.01331 93.39967 36966 ft 501 kts 132°
2026-05-08 04:40 55.96720 93.49340 36958 ft 501 kts 132°
2026-05-08 04:40 55.92118 93.58664 36958 ft 501 kts 132°
2026-05-08 04:41 55.87507 93.67971 36966 ft 501 kts 132°
2026-05-08 04:41 55.82889 93.77253 36964 ft 501 kts 132°
2026-05-08 04:42 55.78262 93.86518 36969 ft 500 kts 132°
2026-05-08 04:42 55.73657 93.95703 36989 ft 501 kts 132°
2026-05-08 04:43 55.69015 94.04925 36970 ft 501 kts 132°
2026-05-08 04:43 55.64365 94.14129 36977 ft 501 kts 132°
2026-05-08 04:44 55.59727 94.23274 36978 ft 501 kts 132°
2026-05-08 04:44 55.55053 94.32453 36978 ft 501 kts 132°
2026-05-08 04:45 55.50381 94.41594 36981 ft 501 kts 133°
2026-05-08 04:45 55.45702 94.50714 36984 ft 501 kts 132°
2026-05-08 04:46 55.41010 94.59823 36980 ft 502 kts 133°
2026-05-08 04:46 55.36342 94.68853 36984 ft 503 kts 133°
2026-05-08 04:47 55.31629 94.77936 36989 ft 503 kts 133°
2026-05-08 04:47 55.27084 94.87254 36991 ft 502 kts 124°
2026-05-08 04:48 55.23644 94.97897 36991 ft 502 kts 116°
2026-05-08 04:48 55.20558 95.08879 36991 ft 502 kts 115°
2026-05-08 04:49 55.17527 95.19895 36990 ft 502 kts 115°
2026-05-08 04:49 55.14487 95.30812 36975 ft 502 kts 115°
2026-05-08 04:50 55.11392 95.41792 36991 ft 504 kts 115°
2026-05-08 04:50 55.08272 95.52779 36995 ft 504 kts 115°
2026-05-08 04:51 55.05153 95.63706 36993 ft 501 kts 115°
2026-05-08 04:51 55.02038 95.74575 36996 ft 501 kts 115°
2026-05-08 04:52 54.98911 95.85439 36994 ft 501 kts 115°
2026-05-08 04:52 54.95791 95.96227 36992 ft 501 kts 115°
2026-05-08 04:53 54.92646 96.07053 36998 ft 500 kts 115°
2026-05-08 04:53 54.89498 96.17837 36999 ft 499 kts 115°
2026-05-08 04:54 54.86349 96.28576 37001 ft 499 kts 116°
2026-05-08 04:54 54.83208 96.39237 36991 ft 499 kts 116°
2026-05-08 04:55 54.80034 96.49964 37001 ft 500 kts 116°
2026-05-08 04:55 54.76847 96.60687 36998 ft 499 kts 115°
2026-05-08 04:56 54.73390 96.71127 36998 ft 500 kts 120°
2026-05-08 04:56 54.69664 96.81283 36997 ft 500 kts 121°
2026-05-08 04:57 54.65884 96.91373 36992 ft 500 kts 122°
2026-05-08 04:57 54.62094 97.01444 37011 ft 500 kts 121°
2026-05-08 04:58 54.58304 97.11501 36990 ft 499 kts 121°
2026-05-08 04:58 54.54541 97.21457 36993 ft 498 kts 122°
2026-05-08 04:59 54.50735 97.31493 36989 ft 500 kts 121°
2026-05-08 04:59 54.46922 97.41505 36990 ft 500 kts 121°
2026-05-08 05:00 54.43118 97.51452 37011 ft 500 kts 121°
2026-05-08 05:00 54.39285 97.61430 36991 ft 498 kts 122°
2026-05-08 05:01 54.35466 97.71333 36989 ft 497 kts 122°
2026-05-08 05:01 54.31639 97.81220 36991 ft 497 kts 122°
2026-05-08 05:02 54.27802 97.91094 36991 ft 497 kts 122°
2026-05-08 05:02 54.23964 98.00930 37000 ft 497 kts 122°
2026-05-08 05:03 54.20148 98.10671 36986 ft 496 kts 122°
2026-05-08 05:03 54.16292 98.20479 36986 ft 496 kts 122°
2026-05-08 05:04 54.13079 98.28620 36984 ft 497 kts 122°
2026-05-08 05:04 54.09212 98.38385 36985 ft 496 kts 122°
2026-05-08 05:05 54.05360 98.48072 37002 ft 496 kts 122°
2026-05-08 05:05 54.01485 98.57779 36990 ft 495 kts 122°
2026-05-08 05:06 53.97604 98.67465 36992 ft 495 kts 122°
2026-05-08 05:06 53.93712 98.77141 36981 ft 495 kts 122°
2026-05-08 05:07 53.89842 98.86724 36988 ft 496 kts 122°
2026-05-08 05:07 53.85928 98.96380 36995 ft 496 kts 123°
2026-05-08 05:08 53.82012 99.06002 36996 ft 496 kts 123°
2026-05-08 05:08 53.78091 99.15600 36998 ft 496 kts 123°
2026-05-08 05:09 53.74164 99.25180 36989 ft 496 kts 123°
2026-05-08 05:09 53.70230 99.34737 36989 ft 495 kts 123°
2026-05-08 05:10 53.64317 99.49035 37005 ft 495 kts 123°
2026-05-08 05:11 53.60363 99.58547 36991 ft 495 kts 123°
2026-05-08 05:11 53.56402 99.68045 36994 ft 495 kts 123°
2026-05-08 05:12 53.52463 99.77455 36996 ft 495 kts 123°
2026-05-08 05:12 53.48490 99.86910 36996 ft 495 kts 123°
2026-05-08 05:13 53.44493 99.96377 36999 ft 495 kts 124°
2026-05-08 05:13 53.40508 100.05792 36999 ft 495 kts 124°
2026-05-08 05:14 53.36516 100.15195 37012 ft 495 kts 124°
2026-05-08 05:14 53.32530 100.24529 37015 ft 495 kts 124°
2026-05-08 05:15 53.28514 100.33903 36999 ft 495 kts 124°
2026-05-08 05:15 53.24489 100.43270 37012 ft 495 kts 124°
2026-05-08 05:16 53.20485 100.52556 36998 ft 495 kts 124°
2026-05-08 05:16 53.16449 100.61883 36998 ft 495 kts 124°
2026-05-08 05:17 53.12405 100.71190 36998 ft 495 kts 124°
2026-05-08 05:17 53.08383 100.80412 36996 ft 494 kts 124°
2026-05-08 05:18 53.04334 100.89660 37001 ft 493 kts 124°
2026-05-08 05:18 53.00291 100.98865 37001 ft 493 kts 125°
2026-05-08 05:19 52.96234 101.08069 37005 ft 494 kts 125°
2026-05-08 05:19 52.92188 101.17211 37001 ft 494 kts 125°
2026-05-08 05:20 52.88112 101.26389 37004 ft 493 kts 125°
2026-05-08 05:20 52.84054 101.35494 37003 ft 492 kts 125°
2026-05-08 05:21 52.79982 101.44599 37003 ft 492 kts 125°
2026-05-08 05:21 52.75903 101.53686 37007 ft 492 kts 126°
2026-05-08 05:22 52.71822 101.62745 37017 ft 492 kts 126°
2026-05-08 05:22 52.67761 101.71727 37016 ft 491 kts 126°
2026-05-08 05:23 52.63678 101.80725 37015 ft 491 kts 126°
2026-05-08 05:23 52.59570 101.89746 37024 ft 491 kts 126°
2026-05-08 05:24 52.55462 101.98738 37024 ft 491 kts 126°
2026-05-08 05:24 52.51352 102.07702 37032 ft 491 kts 126°
2026-05-08 05:25 52.47254 102.16606 37029 ft 490 kts 126°
2026-05-08 05:25 52.43144 102.25507 37033 ft 490 kts 126°
2026-05-08 05:26 52.39019 102.34408 37034 ft 490 kts 127°
2026-05-08 05:26 52.34887 102.43295 37029 ft 490 kts 127°
2026-05-08 05:27 52.30770 102.52115 37036 ft 489 kts 127°
2026-05-08 05:27 52.26640 102.60937 37035 ft 488 kts 127°
2026-05-08 05:28 52.22503 102.69743 37034 ft 488 kts 127°
2026-05-08 05:28 52.18351 102.78549 37032 ft 488 kts 127°
2026-05-08 05:29 52.14233 102.87255 37031 ft 488 kts 127°
2026-05-08 05:29 52.10079 102.96002 37027 ft 488 kts 128°
2026-05-08 05:30 52.05917 103.04741 37026 ft 488 kts 128°
2026-05-08 05:30 52.01753 103.13454 37023 ft 488 kts 128°
2026-05-08 05:31 51.97567 103.22181 37028 ft 489 kts 128°
2026-05-08 05:31 51.93381 103.30879 37032 ft 489 kts 128°
2026-05-08 05:32 51.89214 103.39503 37028 ft 488 kts 128°
2026-05-08 05:32 51.85021 103.48147 37029 ft 487 kts 128°
2026-05-08 05:33 51.80825 103.56759 37029 ft 488 kts 128°
2026-05-08 05:33 51.76620 103.65360 37040 ft 487 kts 128°
2026-05-08 05:34 51.72441 103.73881 37038 ft 487 kts 129°
2026-05-08 05:34 51.67956 103.81994 37037 ft 484 kts 140°
2026-05-08 05:35 51.62397 103.88010 37045 ft 482 kts 152°
2026-05-08 05:35 51.56452 103.93014 37045 ft 482 kts 154°
2026-05-08 05:36 51.50436 103.97835 37054 ft 482 kts 154°
2026-05-08 05:36 51.44428 104.02668 37054 ft 482 kts 154°
2026-05-08 05:37 51.38453 104.07509 37048 ft 484 kts 154°
2026-05-08 05:37 51.32417 104.12409 37043 ft 486 kts 154°
2026-05-08 05:38 51.26390 104.17289 37042 ft 486 kts 155°
2026-05-08 05:38 51.20350 104.22164 37034 ft 485 kts 154°
2026-05-08 05:39 51.14324 104.27015 37029 ft 485 kts 154°
2026-05-08 05:39 51.08317 104.31834 37024 ft 486 kts 155°
2026-05-08 05:40 51.02275 104.36656 37025 ft 483 kts 155°
2026-05-08 05:40 50.96271 104.41431 37018 ft 482 kts 155°
2026-05-08 05:41 50.90273 104.46192 36995 ft 482 kts 155°
2026-05-08 05:41 50.84265 104.50951 37002 ft 484 kts 155°
2026-05-08 05:42 50.78231 104.55713 36997 ft 484 kts 155°
2026-05-08 05:42 50.72234 104.60438 37003 ft 484 kts 155°
2026-05-08 05:43 50.66201 104.65178 36994 ft 483 kts 155°
2026-05-08 05:43 50.60196 104.69884 37011 ft 480 kts 155°
2026-05-08 05:44 50.54199 104.74564 36995 ft 480 kts 155°
2026-05-08 05:44 50.48248 104.79191 36997 ft 480 kts 155°
2026-05-08 05:45 50.42256 104.83836 37006 ft 480 kts 155°
2026-05-08 05:45 50.36443 104.89024 36993 ft 482 kts 146°
2026-05-08 05:46 50.31053 104.95375 36995 ft 483 kts 143°
2026-05-08 05:46 50.25820 105.01856 36979 ft 483 kts 143°
2026-05-08 05:47 50.20554 105.08396 36995 ft 483 kts 143°
2026-05-08 05:47 50.15255 105.14920 36984 ft 485 kts 143°
2026-05-08 05:48 50.09970 105.21384 36976 ft 485 kts 143°
2026-05-08 05:48 50.04647 105.27869 36966 ft 486 kts 144°
2026-05-08 05:49 49.99318 105.34345 36975 ft 485 kts 144°
2026-05-08 05:49 49.93989 105.40804 36970 ft 485 kts 144°
2026-05-08 05:50 49.88656 105.47249 36964 ft 485 kts 144°
2026-05-08 05:50 49.83352 105.53640 36956 ft 485 kts 144°
2026-05-08 05:51 49.78006 105.60063 36962 ft 486 kts 144°
2026-05-08 05:51 49.72654 105.66479 36964 ft 487 kts 144°
2026-05-08 05:52 49.68197 105.71805 36959 ft 487 kts 144°
2026-05-08 05:52 49.62828 105.78201 36956 ft 487 kts 144°
2026-05-08 05:53 49.57447 105.84597 36966 ft 487 kts 144°
2026-05-08 05:53 49.52076 105.90961 36952 ft 487 kts 145°
2026-05-08 05:54 49.46732 105.97276 36953 ft 488 kts 145°
2026-05-08 05:54 49.41344 106.03624 36952 ft 488 kts 145°
2026-05-08 05:55 49.35954 106.09956 36942 ft 488 kts 145°
2026-05-08 05:55 49.30563 106.16273 36945 ft 487 kts 145°
2026-05-08 05:56 49.25162 106.22587 36932 ft 487 kts 145°
2026-05-08 05:56 49.19760 106.28878 36933 ft 488 kts 145°
2026-05-08 05:57 49.14381 106.35130 36913 ft 488 kts 145°
2026-05-08 05:57 49.08969 106.41406 36916 ft 488 kts 145°
2026-05-08 05:58 49.03550 106.47666 36897 ft 488 kts 145°
2026-05-08 05:58 48.98128 106.53908 36890 ft 487 kts 145°
2026-05-08 05:59 48.92514 106.59598 36877 ft 482 kts 156°
2026-05-08 05:59 48.86265 106.62734 36880 ft 474 kts 174°
2026-05-08 06:00 48.79716 106.63769 36866 ft 473 kts 179°
2026-05-08 06:00 48.73141 106.64388 36870 ft 473 kts 179°
2026-05-08 06:01 48.66571 106.64988 36883 ft 473 kts 179°
2026-05-08 06:01 48.59994 106.65645 36879 ft 473 kts 179°
2026-05-08 06:02 48.53423 106.66331 36877 ft 473 kts 179°
2026-05-08 06:02 48.46850 106.67024 36889 ft 473 kts 179°
2026-05-08 06:03 48.40320 106.67715 36891 ft 473 kts 179°
2026-05-08 06:03 48.33751 106.68415 36891 ft 473 kts 179°
2026-05-08 06:04 48.27189 106.69115 36881 ft 473 kts 179°
2026-05-08 06:04 48.20618 106.69814 36883 ft 472 kts 179°
2026-05-08 06:05 48.14094 106.70505 36884 ft 472 kts 179°
2026-05-08 06:05 48.07529 106.71199 36886 ft 472 kts 179°
2026-05-08 06:06 48.00961 106.71891 36885 ft 472 kts 179°
2026-05-08 06:06 47.94435 106.72576 36888 ft 472 kts 179°
2026-05-08 06:07 47.87925 106.74056 36881 ft 477 kts 166°
2026-05-08 06:07 47.81851 106.78172 36883 ft 483 kts 152°
2026-05-08 06:08 47.76165 106.83587 36908 ft 485 kts 149°
2026-05-08 06:08 47.70562 106.89199 36881 ft 486 kts 148°
2026-05-08 06:09 47.64947 106.94773 36875 ft 485 kts 149°
2026-05-08 06:09 47.59344 107.00258 36858 ft 485 kts 149°
2026-05-08 06:10 47.53688 107.05754 36872 ft 486 kts 149°
2026-05-08 06:10 47.48025 107.11239 36867 ft 487 kts 149°
2026-05-08 06:11 47.42352 107.16722 36866 ft 487 kts 149°
2026-05-08 06:11 47.36675 107.22197 36857 ft 487 kts 149°
2026-05-08 06:12 47.31011 107.27646 36855 ft 487 kts 150°
2026-05-08 06:12 47.25322 107.33104 36848 ft 488 kts 150°
2026-05-08 06:13 47.19630 107.38550 36840 ft 488 kts 150°
2026-05-08 06:13 47.13932 107.43989 36834 ft 488 kts 150°
2026-05-08 06:14 47.08237 107.49411 36826 ft 488 kts 150°
2026-05-08 06:14 47.02565 107.54795 36824 ft 488 kts 150°
2026-05-08 06:15 46.96853 107.60203 36823 ft 489 kts 150°
2026-05-08 06:15 46.91133 107.65607 36812 ft 489 kts 150°
2026-05-08 06:16 46.85419 107.70991 36810 ft 489 kts 150°
2026-05-08 06:16 46.79698 107.76367 36804 ft 489 kts 150°
2026-05-08 06:17 46.71106 107.84415 36798 ft 490 kts 150°
2026-05-08 06:17 46.65359 107.89781 36798 ft 490 kts 150°
2026-05-08 06:18 46.59616 107.95130 36793 ft 490 kts 150°
2026-05-08 06:18 46.53908 108.00433 36793 ft 490 kts 150°
2026-05-08 06:19 46.48153 108.05766 36791 ft 490 kts 150°
2026-05-08 06:19 46.42401 108.11083 36790 ft 491 kts 150°
2026-05-08 06:20 46.36631 108.16402 36784 ft 491 kts 150°
2026-05-08 06:20 46.30900 108.21672 36781 ft 491 kts 151°
2026-05-08 06:21 46.25132 108.26962 36782 ft 491 kts 151°
2026-05-08 06:21 46.19355 108.32248 36772 ft 491 kts 151°
2026-05-08 06:22 46.13575 108.37524 36768 ft 491 kts 151°
2026-05-08 06:22 46.07790 108.42791 36755 ft 491 kts 151°
2026-05-08 06:23 46.02005 108.48045 36761 ft 492 kts 151°
2026-05-08 06:23 45.96251 108.53256 36760 ft 492 kts 151°
2026-05-08 06:24 45.90451 108.58498 36750 ft 492 kts 151°
2026-05-08 06:24 45.84641 108.63734 36749 ft 493 kts 151°
2026-05-08 06:25 45.78830 108.68958 36746 ft 493 kts 151°
2026-05-08 06:25 45.73016 108.74172 36737 ft 493 kts 151°
2026-05-08 06:26 45.67223 108.79351 36742 ft 494 kts 151°
2026-05-08 06:26 45.61384 108.84559 36742 ft 494 kts 151°
2026-05-08 06:27 45.55550 108.89749 36739 ft 494 kts 151°
2026-05-08 06:27 45.49709 108.94934 36733 ft 494 kts 151°
2026-05-08 06:28 45.43868 109.00105 36733 ft 494 kts 151°
2026-05-08 06:28 45.38045 109.05246 36736 ft 495 kts 151°
2026-05-08 06:29 45.32178 109.10416 36743 ft 495 kts 152°
2026-05-08 06:29 45.26318 109.15567 36737 ft 495 kts 152°
2026-05-08 06:30 45.20450 109.20711 36736 ft 495 kts 152°
2026-05-08 06:30 45.14605 109.25823 36730 ft 496 kts 152°
2026-05-08 06:31 45.08732 109.30946 36730 ft 495 kts 152°
2026-05-08 06:31 45.02862 109.36055 36728 ft 495 kts 152°
2026-05-08 06:32 44.96982 109.41160 36728 ft 495 kts 152°
2026-05-08 06:32 44.91092 109.46260 36729 ft 496 kts 152°
2026-05-08 06:33 44.85239 109.51316 36724 ft 496 kts 152°
2026-05-08 06:33 44.79333 109.56406 36728 ft 496 kts 152°
2026-05-08 06:34 44.73439 109.61475 36730 ft 496 kts 152°
2026-05-08 06:34 44.67569 109.66509 36727 ft 496 kts 152°
2026-05-08 06:35 44.61651 109.71572 36724 ft 497 kts 152°
2026-05-08 06:35 44.55730 109.76625 36725 ft 498 kts 152°
2026-05-08 06:36 44.49811 109.81666 36719 ft 497 kts 152°
2026-05-08 06:36 44.43889 109.86697 36719 ft 497 kts 152°
2026-05-08 06:37 44.38003 109.91685 36713 ft 498 kts 152°
2026-05-08 06:37 44.32054 109.96715 36710 ft 498 kts 152°
2026-05-08 06:38 44.26152 110.01695 36708 ft 498 kts 152°
2026-05-08 06:38 44.20219 110.06688 36705 ft 498 kts 152°
2026-05-08 06:39 44.14266 110.11686 36704 ft 499 kts 152°
2026-05-08 06:39 44.09311 110.15837 36708 ft 499 kts 152°
2026-05-08 06:40 44.03344 110.20826 36707 ft 500 kts 152°
2026-05-08 06:40 43.97415 110.25772 36708 ft 499 kts 152°
2026-05-08 06:41 43.91455 110.30731 36712 ft 499 kts 152°
2026-05-08 06:41 43.85481 110.35689 36713 ft 500 kts 152°
2026-05-08 06:42 43.79526 110.40620 36711 ft 500 kts 152°
2026-05-08 06:42 43.73546 110.45561 36710 ft 500 kts 152°
2026-05-08 06:43 43.67551 110.50503 36715 ft 500 kts 152°
2026-05-08 06:43 43.61599 110.55397 36711 ft 501 kts 152°
2026-05-08 06:44 43.55589 110.60327 36711 ft 502 kts 152°
2026-05-08 06:44 43.49589 110.65239 36714 ft 501 kts 152°
2026-05-08 06:45 43.43587 110.70140 36725 ft 502 kts 152°
2026-05-08 06:45 43.37565 110.75044 36714 ft 503 kts 152°
2026-05-08 06:46 43.31574 110.79914 36719 ft 504 kts 152°
2026-05-08 06:46 43.25535 110.84811 36716 ft 504 kts 152°
2026-05-08 06:47 43.19283 110.89010 36724 ft 497 kts 164°
2026-05-08 06:47 43.12724 110.92020 36722 ft 497 kts 166°
2026-05-08 06:48 43.06093 110.94799 36726 ft 497 kts 167°
2026-05-08 06:48 42.99507 110.97530 36716 ft 498 kts 167°
2026-05-08 06:49 42.92882 111.00299 36718 ft 498 kts 167°
2026-05-08 06:49 42.86252 111.03082 36728 ft 498 kts 167°
2026-05-08 06:50 42.79627 111.05861 36732 ft 498 kts 167°
2026-05-08 06:50 42.72995 111.08636 36735 ft 498 kts 167°
2026-05-08 06:51 42.66372 111.11400 36750 ft 498 kts 167°
2026-05-08 06:51 42.59787 111.14142 36757 ft 498 kts 167°
2026-05-08 06:52 42.53145 111.16901 36767 ft 499 kts 167°
2026-05-08 06:52 42.46488 111.19661 36769 ft 500 kts 167°
2026-05-08 06:53 42.39839 111.22411 36768 ft 499 kts 167°
2026-05-08 06:53 42.33223 111.25141 36788 ft 500 kts 167°
2026-05-08 06:54 42.26566 111.27883 36804 ft 500 kts 167°
2026-05-08 06:54 42.19909 111.30620 36801 ft 500 kts 167°
2026-05-08 06:55 42.13243 111.33364 36815 ft 501 kts 167°
2026-05-08 06:55 42.06560 111.36113 36827 ft 501 kts 167°
2026-05-08 06:56 41.99893 111.38851 36837 ft 501 kts 167°
2026-05-08 06:56 41.93221 111.41584 36856 ft 501 kts 167°
2026-05-08 06:57 41.86600 111.44290 36856 ft 500 kts 167°
2026-05-08 06:57 41.79936 111.47006 36865 ft 500 kts 167°
2026-05-08 06:58 41.73261 111.49722 36878 ft 500 kts 167°
2026-05-08 06:58 41.66641 111.52409 36889 ft 500 kts 167°
2026-05-08 06:59 41.59983 111.55106 36910 ft 499 kts 167°
2026-05-08 06:59 41.53329 111.57796 36910 ft 499 kts 168°
2026-05-08 07:00 41.46663 111.60484 36927 ft 499 kts 168°
2026-05-08 07:00 41.40003 111.63164 36942 ft 500 kts 168°
2026-05-08 07:01 41.33342 111.65839 36941 ft 499 kts 168°
2026-05-08 07:01 41.26726 111.68491 36951 ft 500 kts 168°
2026-05-08 07:02 41.20060 111.71156 36960 ft 500 kts 168°
2026-05-08 07:02 41.13395 111.73817 36974 ft 500 kts 168°
2026-05-08 07:03 41.06731 111.76470 36983 ft 500 kts 168°
2026-05-08 07:03 41.00069 111.79117 36992 ft 500 kts 168°
2026-05-08 07:04 40.93399 111.81763 36992 ft 500 kts 168°
2026-05-08 07:04 40.86771 111.84383 36991 ft 500 kts 168°
2026-05-08 07:05 40.80091 111.87021 36993 ft 500 kts 168°
2026-05-08 07:05 40.73417 111.89651 36982 ft 500 kts 168°
2026-05-08 07:06 40.66685 111.91878 36974 ft 497 kts 173°
2026-05-08 07:06 40.59899 111.93688 36988 ft 496 kts 175°
2026-05-08 07:07 40.53093 111.95147 36987 ft 495 kts 176°
2026-05-08 07:07 40.46320 111.96561 36962 ft 495 kts 176°
2026-05-08 07:08 40.39517 111.98041 36983 ft 495 kts 175°
2026-05-08 07:08 40.32734 111.99669 36988 ft 495 kts 174°
2026-05-08 07:09 40.25964 112.01360 36991 ft 495 kts 174°
2026-05-08 07:09 40.19242 112.03033 36993 ft 494 kts 174°
2026-05-08 07:10 40.12493 112.04701 36998 ft 493 kts 174°
2026-05-08 07:10 40.05734 112.06364 36998 ft 493 kts 174°
2026-05-08 07:11 39.98989 112.08020 37017 ft 493 kts 175°
2026-05-08 07:11 39.92276 112.09660 37024 ft 493 kts 175°
2026-05-08 07:12 39.85530 112.11301 37030 ft 493 kts 175°
2026-05-08 07:12 39.78787 112.12940 37021 ft 493 kts 175°
2026-05-08 07:13 39.72024 112.14578 37037 ft 494 kts 175°
2026-05-08 07:13 39.65254 112.16217 37045 ft 495 kts 175°
2026-05-08 07:14 39.58519 112.17846 37029 ft 494 kts 176°
2026-05-08 07:14 39.51740 112.19481 37052 ft 496 kts 176°
2026-05-08 07:15 39.44961 112.21128 37045 ft 496 kts 175°
2026-05-08 07:15 39.38179 112.22800 37040 ft 496 kts 175°
2026-05-08 07:16 39.31399 112.24474 37054 ft 497 kts 176°
2026-05-08 07:16 39.24601 112.26137 37056 ft 497 kts 176°
2026-05-08 07:17 39.17800 112.27803 37058 ft 497 kts 176°
2026-05-08 07:17 39.10989 112.29469 37063 ft 499 kts 177°
2026-05-08 07:18 39.04193 112.31123 37067 ft 501 kts 177°
2026-05-08 07:18 38.97338 112.32790 37059 ft 501 kts 177°
2026-05-08 07:19 38.90482 112.34457 37058 ft 501 kts 177°
2026-05-08 07:19 38.83636 112.36124 37059 ft 501 kts 177°
2026-05-08 07:20 38.76818 112.37769 37060 ft 501 kts 177°
2026-05-08 07:20 38.69973 112.39429 37041 ft 500 kts 178°
2026-05-08 07:21 38.63109 112.41086 37055 ft 501 kts 178°
2026-05-08 07:21 38.56250 112.42725 37055 ft 501 kts 178°
2026-05-08 07:22 38.49395 112.44364 37053 ft 501 kts 177°
2026-05-08 07:22 38.42585 112.45989 37031 ft 500 kts 178°
2026-05-08 07:23 38.35736 112.47608 37038 ft 501 kts 178°
2026-05-08 07:23 38.28879 112.49222 37038 ft 501 kts 178°
2026-05-08 07:24 38.22021 112.50838 37036 ft 501 kts 178°
2026-05-08 07:24 38.15180 112.52450 37038 ft 498 kts 179°
2026-05-08 07:25 38.08361 112.54048 37047 ft 497 kts 178°
2026-05-08 07:26 37.99293 112.56170 37032 ft 498 kts 178°
2026-05-08 07:26 37.91377 112.58021 37045 ft 496 kts 178°
2026-05-08 07:27 37.85721 112.59345 37048 ft 496 kts 178°
2026-05-08 07:27 37.78937 112.60954 37010 ft 496 kts 178°
2026-05-08 07:28 37.72154 112.62716 37047 ft 499 kts 175°
2026-05-08 07:28 37.65456 112.64938 37045 ft 501 kts 173°
2026-05-08 07:29 37.58726 112.67277 37049 ft 501 kts 173°
2026-05-08 07:29 37.51990 112.69578 37044 ft 500 kts 174°
2026-05-08 07:30 37.45259 112.71837 37062 ft 499 kts 174°
2026-05-08 07:30 37.38531 112.74075 37080 ft 499 kts 174°
2026-05-08 07:31 37.31855 112.76292 37080 ft 500 kts 174°
2026-05-08 07:31 37.25146 112.78520 37081 ft 498 kts 174°
2026-05-08 07:32 37.18447 112.80738 37084 ft 497 kts 174°
2026-05-08 07:32 37.11747 112.82947 37085 ft 498 kts 174°
2026-05-08 07:33 37.05037 112.85163 37076 ft 498 kts 174°
2026-05-08 07:33 36.98337 112.87377 37085 ft 498 kts 174°
2026-05-08 07:34 36.91640 112.89586 37084 ft 498 kts 174°
2026-05-08 07:34 36.84973 112.91782 37080 ft 498 kts 174°
2026-05-08 07:35 36.78278 112.93983 37092 ft 498 kts 174°
2026-05-08 07:35 36.71577 112.96182 37097 ft 497 kts 174°
2026-05-08 07:36 36.64879 112.98376 37102 ft 497 kts 174°
2026-05-08 07:36 36.58189 113.00563 37105 ft 497 kts 174°
2026-05-08 07:37 36.51487 113.02749 37108 ft 497 kts 174°
2026-05-08 07:37 36.44797 113.04928 37106 ft 497 kts 174°
2026-05-08 07:38 36.38136 113.07093 37107 ft 497 kts 174°
2026-05-08 07:38 36.31434 113.09266 37115 ft 497 kts 174°
2026-05-08 07:39 36.24733 113.11484 37121 ft 501 kts 171°
2026-05-08 07:39 36.18111 113.14299 37125 ft 504 kts 168°
2026-05-08 07:40 36.11534 113.17247 37134 ft 505 kts 168°
2026-05-08 07:40 36.04943 113.20227 37135 ft 505 kts 168°
2026-05-08 07:41 35.98343 113.23195 37135 ft 505 kts 168°
2026-05-08 07:41 35.91730 113.26154 37146 ft 505 kts 168°
2026-05-08 07:42 35.85124 113.29103 37146 ft 505 kts 168°
2026-05-08 07:42 35.78546 113.32044 37149 ft 503 kts 168°
2026-05-08 07:43 35.71962 113.34988 37152 ft 503 kts 168°
2026-05-08 07:43 35.65382 113.37924 37145 ft 503 kts 168°
2026-05-08 07:44 35.58849 113.40838 37116 ft 501 kts 168°
2026-05-08 07:44 35.52275 113.43750 37138 ft 502 kts 168°
2026-05-08 07:45 35.45690 113.46653 37139 ft 502 kts 168°
2026-05-08 07:45 35.39118 113.49574 37134 ft 502 kts 168°
2026-05-08 07:46 35.32599 113.52480 37129 ft 501 kts 167°
2026-05-08 07:46 35.26043 113.55398 37138 ft 501 kts 167°
2026-05-08 07:47 35.19484 113.58308 37129 ft 500 kts 167°
2026-05-08 07:47 35.12929 113.61209 37132 ft 500 kts 167°
2026-05-08 07:48 35.06415 113.64087 37114 ft 500 kts 167°
2026-05-08 07:48 34.99875 113.66973 37135 ft 499 kts 167°
2026-05-08 07:49 34.93341 113.69851 37135 ft 498 kts 167°
2026-05-08 07:49 34.86844 113.72703 37136 ft 498 kts 168°
2026-05-08 07:50 34.80250 113.75133 37129 ft 492 kts 173°
2026-05-08 07:50 34.73621 113.77251 37152 ft 491 kts 173°
2026-05-08 07:51 34.66999 113.79364 37155 ft 492 kts 173°
2026-05-08 07:51 34.60386 113.81520 37156 ft 492 kts 173°
2026-05-08 07:52 34.53818 113.83685 37158 ft 492 kts 173°
2026-05-08 07:52 34.47201 113.85829 37160 ft 492 kts 173°
2026-05-08 07:53 34.40580 113.87920 37159 ft 491 kts 173°
2026-05-08 07:53 34.33962 113.90001 37160 ft 491 kts 173°
2026-05-08 07:54 34.27332 113.92088 37156 ft 491 kts 174°
2026-05-08 07:54 34.20713 113.94171 37162 ft 491 kts 174°
2026-05-08 07:55 34.14117 113.96245 37164 ft 491 kts 174°
2026-05-08 07:55 34.07494 113.98323 37165 ft 491 kts 174°
2026-05-08 07:56 34.00865 114.00401 37166 ft 491 kts 174°
2026-05-08 07:56 33.94281 114.02460 37164 ft 491 kts 174°
2026-05-08 07:57 33.87664 114.04527 37163 ft 491 kts 174°
2026-05-08 07:57 33.81044 114.06591 37158 ft 491 kts 174°
2026-05-08 07:58 33.74465 114.08640 37167 ft 491 kts 174°
2026-05-08 07:58 33.67837 114.10700 37168 ft 491 kts 174°
2026-05-08 07:59 33.61219 114.12753 37169 ft 491 kts 174°
2026-05-08 07:59 33.54583 114.14810 37138 ft 491 kts 174°
2026-05-08 08:00 33.47961 114.16858 37166 ft 492 kts 174°
2026-05-08 08:00 33.41378 114.18890 37168 ft 491 kts 175°
2026-05-08 08:01 33.34731 114.19857 37169 ft 471 kts 191°
2026-05-08 08:01 33.28266 114.19199 37145 ft 464 kts 196°
2026-05-08 08:02 33.21876 114.18204 37167 ft 463 kts 197°
2026-05-08 08:02 33.15488 114.17167 37168 ft 463 kts 197°
2026-05-08 08:03 33.09099 114.16162 37169 ft 463 kts 196°
2026-05-08 08:03 33.02738 114.15187 37168 ft 463 kts 197°
2026-05-08 08:04 32.96340 114.14214 37170 ft 464 kts 197°
2026-05-08 08:04 32.89939 114.13241 37174 ft 464 kts 197°
2026-05-08 08:05 32.83540 114.12269 37175 ft 463 kts 197°
2026-05-08 08:05 32.77141 114.11299 37170 ft 464 kts 197°
2026-05-08 08:06 32.70740 114.10329 37164 ft 463 kts 197°
2026-05-08 08:06 32.64338 114.09361 37165 ft 463 kts 197°
2026-05-08 08:07 32.57940 114.08394 37131 ft 464 kts 197°
2026-05-08 08:07 32.51541 114.07428 37165 ft 463 kts 197°
2026-05-08 08:08 32.45192 114.06469 37167 ft 463 kts 197°
2026-05-08 08:08 32.38801 114.05506 37167 ft 463 kts 197°
2026-05-08 08:09 32.32411 114.04546 37152 ft 463 kts 197°
2026-05-08 08:09 32.26011 114.03587 37168 ft 463 kts 197°
2026-05-08 08:10 32.19624 114.02631 37166 ft 462 kts 197°
2026-05-08 08:10 32.13234 114.01675 37168 ft 462 kts 197°
2026-05-08 08:11 32.06891 114.00728 37159 ft 462 kts 198°
2026-05-08 08:11 32.00508 113.99776 37171 ft 462 kts 198°
2026-05-08 08:12 31.94131 113.98825 37171 ft 461 kts 198°
2026-05-08 08:12 31.87759 113.97877 37172 ft 461 kts 198°